VIR44 KLAS-EGKK

Flight info

Callsign VIR44
Flight time 9h 28m
Altitude 33000
Route RATPK3 FRNCK DCT MTU DCT CKW DCT RAP DCT DLH/N0501F350 DCT YSP DCT VETRO DCT EXPOS DCT JANJO/M086F370 DCT 56N050W 57N040W 58N030W 58N020W DCT SUNOT DCT KESIX/N0501F390 DCT MIMKU DCT SOSIM L15 KEPAD L151 DISIT
Aircraft B744/H-SDE3FGHIM1M2RWXY/LB1

Departure

Time 2026-05-07 07:17
Airport Harry Reid International Airport (KLAS)

Arrival

Time 2026-05-07 16:45
Airport London Gatwick Airport (EGKK)
Time Latitude Longitude Altitude Speed Heading
2026-05-07 06:57 36.08519 -115.13508 2093 ft 0 kts 358°
2026-05-07 07:01 36.08516 -115.13507 2093 ft 2 kts 358°
2026-05-07 07:01 36.08500 -115.13507 2094 ft 2 kts 360°
2026-05-07 07:01 36.08483 -115.13507 2095 ft 2 kts
2026-05-07 07:02 36.08468 -115.13511 2096 ft 2 kts 42°
2026-05-07 07:02 36.08464 -115.13530 2096 ft 2 kts 97°
2026-05-07 07:02 36.08466 -115.13550 2096 ft 2 kts 89°
2026-05-07 07:02 36.08466 -115.13569 2098 ft 1 kts 89°
2026-05-07 07:03 36.08466 -115.13573 2098 ft 0 kts 91°
2026-05-07 07:06 36.08465 -115.13556 2096 ft 7 kts 91°
2026-05-07 07:06 36.08457 -115.13459 2098 ft 11 kts 111°
2026-05-07 07:07 36.08419 -115.13398 2097 ft 7 kts 134°
2026-05-07 07:07 36.08392 -115.13364 2099 ft 5 kts 134°
2026-05-07 07:07 36.08366 -115.13331 2101 ft 5 kts 137°
2026-05-07 07:07 36.08334 -115.13309 2103 ft 6 kts 162°
2026-05-07 07:08 36.08284 -115.13293 2107 ft 8 kts 173°
2026-05-07 07:08 36.08237 -115.13292 2110 ft 5 kts 184°
2026-05-07 07:08 36.08192 -115.13293 2114 ft 9 kts 180°
2026-05-07 07:08 36.08118 -115.13292 2119 ft 12 kts 179°
2026-05-07 07:09 36.08024 -115.13292 2128 ft 15 kts 180°
2026-05-07 07:09 36.07914 -115.13291 2131 ft 15 kts 180°
2026-05-07 07:09 36.07832 -115.13292 2134 ft 9 kts 181°
2026-05-07 07:09 36.07775 -115.13281 2135 ft 9 kts 143°
2026-05-07 07:10 36.07755 -115.13203 2134 ft 13 kts 94°
2026-05-07 07:10 36.07757 -115.13079 2132 ft 17 kts 89°
2026-05-07 07:10 36.07756 -115.12920 2132 ft 21 kts 90°
2026-05-07 07:10 36.07756 -115.12745 2129 ft 20 kts 90°
2026-05-07 07:11 36.07755 -115.12579 2128 ft 18 kts 90°
2026-05-07 07:11 36.07755 -115.12409 2131 ft 20 kts 91°
2026-05-07 07:11 36.07754 -115.12278 2131 ft 14 kts 90°
2026-05-07 07:11 36.07754 -115.12181 2131 ft 8 kts 102°
2026-05-07 07:12 36.07733 -115.12137 2132 ft 5 kts 142°
2026-05-07 07:12 36.07697 -115.12123 2134 ft 6 kts 181°
2026-05-07 07:12 36.07662 -115.12143 2135 ft 6 kts 233°
2026-05-07 07:12 36.07638 -115.12221 2134 ft 13 kts 260°
2026-05-07 07:13 36.07641 -115.12328 2132 ft 13 kts 272°
2026-05-07 07:13 36.07642 -115.12573 2133 ft 54 kts 271°
2026-05-07 07:13 36.07643 -115.13079 2135 ft 40 kts 269°
2026-05-07 07:13 36.07641 -115.13304 2134 ft 9 kts 285°
2026-05-07 07:14 36.07708 -115.13369 2136 ft 15 kts
2026-05-07 07:14 36.07756 -115.13246 2134 ft 21 kts 90°
2026-05-07 07:14 36.07756 -115.13071 2132 ft 20 kts 90°
2026-05-07 07:14 36.07755 -115.12912 2132 ft 18 kts 90°
2026-05-07 07:15 36.07754 -115.12764 2129 ft 17 kts 90°
2026-05-07 07:15 36.07755 -115.12606 2128 ft 23 kts 89°
2026-05-07 07:15 36.07757 -115.12375 2131 ft 32 kts 89°
2026-05-07 07:15 36.07753 -115.12173 2131 ft 10 kts 124°
2026-05-07 07:16 36.07717 -115.12151 2133 ft 5 kts 171°
2026-05-07 07:16 36.07678 -115.12154 2134 ft 6 kts 202°
2026-05-07 07:16 36.07644 -115.12205 2134 ft 13 kts 255°
2026-05-07 07:16 36.07640 -115.12360 2131 ft 23 kts 272°
2026-05-07 07:17 36.07642 -115.12754 2133 ft 80 kts 270°
2026-05-07 07:17 36.07638 -115.13731 2135 ft 146 kts 270°
2026-05-07 07:17 36.07642 -115.15223 2237 ft 192 kts 269°
2026-05-07 07:17 36.07666 -115.16853 3135 ft 181 kts 272°
2026-05-07 07:18 36.07738 -115.18435 3664 ft 195 kts 272°
2026-05-07 07:18 36.07676 -115.20255 3668 ft 226 kts 267°
2026-05-07 07:18 36.07627 -115.22263 3945 ft 239 kts 270°
2026-05-07 07:18 36.07633 -115.24358 4352 ft 248 kts 270°
2026-05-07 07:19 36.07877 -115.26475 4822 ft 253 kts 295°
2026-05-07 07:19 36.08911 -115.28178 5300 ft 254 kts 326°
2026-05-07 07:19 36.10523 -115.29044 6045 ft 256 kts 345°
2026-05-07 07:19 36.12275 -115.29499 6721 ft 260 kts 355°
2026-05-07 07:20 36.14082 -115.29185 7230 ft 271 kts 25°
2026-05-07 07:20 36.15611 -115.27787 7758 ft 280 kts 53°
2026-05-07 07:20 36.16473 -115.25622 8411 ft 285 kts 75°
2026-05-07 07:20 36.16907 -115.23208 9086 ft 290 kts 78°
2026-05-07 07:21 36.17414 -115.20779 9776 ft 293 kts 71°
2026-05-07 07:21 36.18182 -115.18419 10413 ft 300 kts 65°
2026-05-07 07:21 36.19072 -115.16029 10873 ft 313 kts 66°
2026-05-07 07:21 36.19944 -115.13482 11240 ft 330 kts 68°
2026-05-07 07:22 36.20813 -115.10770 11589 ft 348 kts 68°
2026-05-07 07:22 36.21740 -115.07923 11929 ft 366 kts 68°
2026-05-07 07:22 36.22743 -115.04933 12268 ft 386 kts 67°
2026-05-07 07:22 36.23793 -115.01793 12670 ft 402 kts 68°
2026-05-07 07:23 36.24864 -114.98544 13311 ft 412 kts 68°
2026-05-07 07:23 36.25954 -114.95226 14027 ft 419 kts 68°
2026-05-07 07:23 36.27067 -114.91858 14756 ft 425 kts 68°
2026-05-07 07:23 36.28196 -114.88444 15490 ft 431 kts 68°
2026-05-07 07:24 36.29333 -114.84990 16207 ft 436 kts 68°
2026-05-07 07:24 36.30485 -114.81484 16906 ft 441 kts 68°
2026-05-07 07:24 36.31646 -114.77947 17595 ft 446 kts 68°
2026-05-07 07:24 36.32822 -114.74368 18260 ft 450 kts 68°
2026-05-07 07:25 36.35194 -114.67150 19547 ft 459 kts 66°
2026-05-07 07:25 36.36773 -114.63695 20168 ft 463 kts 53°
2026-05-07 07:25 36.38925 -114.60710 20773 ft 467 kts 41°
2026-05-07 07:26 36.41539 -114.58300 21368 ft 470 kts 32°
2026-05-07 07:26 36.44353 -114.56194 21949 ft 474 kts 30°
2026-05-07 07:26 36.47198 -114.54102 22515 ft 477 kts 32°
2026-05-07 07:26 36.49993 -114.51845 23067 ft 481 kts 34°
2026-05-07 07:27 36.52783 -114.49521 23601 ft 484 kts 33°
2026-05-07 07:27 36.55631 -114.47254 24122 ft 488 kts 32°
2026-05-07 07:27 36.58521 -114.45015 24622 ft 491 kts 32°
2026-05-07 07:27 36.61412 -114.42723 25100 ft 494 kts 33°
2026-05-07 07:28 36.64305 -114.40379 25560 ft 498 kts 33°
2026-05-07 07:28 36.67225 -114.38031 25987 ft 501 kts 32°
2026-05-07 07:28 36.70173 -114.35692 26400 ft 505 kts 32°
2026-05-07 07:28 36.73141 -114.33330 26804 ft 508 kts 32°
2026-05-07 07:29 36.76120 -114.30936 27189 ft 511 kts 32°
2026-05-07 07:29 36.79115 -114.28524 27558 ft 514 kts 32°
2026-05-07 07:29 36.82132 -114.26106 27919 ft 517 kts 32°
2026-05-07 07:29 36.85167 -114.23674 28236 ft 520 kts 32°
2026-05-07 07:30 36.88216 -114.21222 28560 ft 523 kts 32°
2026-05-07 07:30 36.91275 -114.18756 28990 ft 523 kts 32°
2026-05-07 07:30 36.94327 -114.16296 29465 ft 521 kts 32°
2026-05-07 07:30 36.97370 -114.13845 29938 ft 520 kts 32°
2026-05-07 07:31 37.00409 -114.11393 30397 ft 519 kts 32°
2026-05-07 07:31 37.03442 -114.08941 30841 ft 519 kts 33°
2026-05-07 07:31 37.06471 -114.06490 31273 ft 518 kts 33°
2026-05-07 07:31 37.09497 -114.04042 31689 ft 517 kts 33°
2026-05-07 07:32 37.12518 -114.01594 32098 ft 517 kts 33°
2026-05-07 07:32 37.15536 -113.99146 32488 ft 517 kts 33°
2026-05-07 07:32 37.18552 -113.96697 32858 ft 516 kts 33°
2026-05-07 07:32 37.21542 -113.94267 33000 ft 510 kts 33°
2026-05-07 07:33 37.24510 -113.91853 32981 ft 507 kts 33°
2026-05-07 07:33 37.30411 -113.87046 32990 ft 505 kts 33°
2026-05-07 07:34 37.36316 -113.82227 32996 ft 507 kts 33°
2026-05-07 07:34 37.42243 -113.77381 32995 ft 509 kts 33°
2026-05-07 07:35 37.48174 -113.72521 33001 ft 511 kts 33°
2026-05-07 07:35 37.54117 -113.67643 33000 ft 509 kts 33°
2026-05-07 07:36 37.60049 -113.62763 32999 ft 508 kts 33°
2026-05-07 07:36 37.65968 -113.57887 33000 ft 508 kts 33°
2026-05-07 07:37 37.71444 -113.52294 33013 ft 508 kts 46°
2026-05-07 07:37 37.76114 -113.45580 33011 ft 511 kts 49°
2026-05-07 07:38 37.80990 -113.39076 33008 ft 509 kts 44°
2026-05-07 07:38 37.85911 -113.32652 33010 ft 508 kts 47°
2026-05-07 07:39 37.90747 -113.26121 33011 ft 508 kts 45°
2026-05-07 07:39 37.95652 -113.19672 33009 ft 509 kts 46°
2026-05-07 07:40 38.00506 -113.13134 33010 ft 510 kts 46°
2026-05-07 07:40 38.05407 -113.06620 33011 ft 511 kts 46°
2026-05-07 07:41 38.09464 -113.01160 33012 ft 512 kts 46°
2026-05-07 07:41 38.14365 -112.94592 33009 ft 510 kts 46°
2026-05-07 07:42 38.19242 -112.88027 33010 ft 511 kts 46°
2026-05-07 07:42 38.24114 -112.81459 33011 ft 510 kts 46°
2026-05-07 07:43 38.28976 -112.74891 33010 ft 510 kts 46°
2026-05-07 07:43 38.33840 -112.68307 33009 ft 511 kts 46°
2026-05-07 07:44 38.38707 -112.61704 33011 ft 511 kts 46°
2026-05-07 07:44 38.43583 -112.55074 33012 ft 515 kts 46°
2026-05-07 07:45 38.48502 -112.48374 33008 ft 518 kts 47°
2026-05-07 07:45 38.53404 -112.41681 33008 ft 514 kts 47°
2026-05-07 07:46 38.58264 -112.35031 33006 ft 510 kts 47°
2026-05-07 07:46 38.63115 -112.28380 33004 ft 513 kts 47°
2026-05-07 07:47 38.67970 -112.21710 33004 ft 511 kts 47°
2026-05-07 07:47 38.72813 -112.15041 33005 ft 510 kts 47°
2026-05-07 07:48 38.77639 -112.08382 33005 ft 508 kts 47°
2026-05-07 07:48 38.82444 -112.01737 33005 ft 508 kts 47°
2026-05-07 07:49 38.87246 -111.95082 33004 ft 508 kts 47°
2026-05-07 07:49 38.92044 -111.88418 33006 ft 508 kts 47°
2026-05-07 07:50 38.96841 -111.81742 33006 ft 510 kts 47°
2026-05-07 07:50 39.01645 -111.75041 33007 ft 510 kts 47°
2026-05-07 07:51 39.06454 -111.68320 33008 ft 512 kts 47°
2026-05-07 07:51 39.11275 -111.61566 33009 ft 511 kts 47°
2026-05-07 07:52 39.16112 -111.54776 33009 ft 517 kts 47°
2026-05-07 07:52 39.20992 -111.47910 33007 ft 519 kts 47°
2026-05-07 07:53 39.25865 -111.41039 33006 ft 519 kts 47°
2026-05-07 07:53 39.30723 -111.34173 33007 ft 516 kts 47°
2026-05-07 07:54 39.35526 -111.27371 33008 ft 513 kts 47°
2026-05-07 07:54 39.40352 -111.20520 33005 ft 517 kts 47°
2026-05-07 07:55 39.45190 -111.13637 33008 ft 516 kts 47°
2026-05-07 07:55 39.50010 -111.06765 33005 ft 517 kts 47°
2026-05-07 07:56 39.54827 -110.99882 33007 ft 513 kts 47°
2026-05-07 07:56 39.59600 -110.93046 33005 ft 510 kts 47°
2026-05-07 07:57 39.64356 -110.86220 33006 ft 509 kts 47°
2026-05-07 07:57 39.69104 -110.79389 33004 ft 510 kts 48°
2026-05-07 07:58 39.73880 -110.72505 33006 ft 515 kts 48°
2026-05-07 07:58 39.78663 -110.65593 33007 ft 513 kts 48°
2026-05-07 07:59 39.83445 -110.58668 33008 ft 515 kts 48°
2026-05-07 07:59 39.88235 -110.51716 33009 ft 514 kts 48°
2026-05-07 08:00 39.93024 -110.44748 33009 ft 516 kts 48°
2026-05-07 08:00 39.97798 -110.37787 33011 ft 514 kts 48°
2026-05-07 08:01 40.02544 -110.30851 33012 ft 511 kts 48°
2026-05-07 08:01 40.07272 -110.23926 33010 ft 510 kts 48°
2026-05-07 08:02 40.11955 -110.17052 33010 ft 509 kts 48°
2026-05-07 08:02 40.16649 -110.10124 33010 ft 509 kts 49°
2026-05-07 08:03 40.21219 -110.03070 33011 ft 508 kts 49°
2026-05-07 08:03 40.25838 -109.96065 33012 ft 508 kts 49°
2026-05-07 08:04 40.30428 -109.89023 33010 ft 508 kts 49°
2026-05-07 08:04 40.35058 -109.81929 33012 ft 509 kts 49°
2026-05-07 08:05 40.39653 -109.74867 33012 ft 510 kts 49°
2026-05-07 08:05 40.44250 -109.67781 33009 ft 510 kts 49°
2026-05-07 08:06 40.48856 -109.60673 33009 ft 511 kts 49°
2026-05-07 08:06 40.53418 -109.53608 33011 ft 510 kts 49°
2026-05-07 08:07 40.58007 -109.46492 33011 ft 511 kts 50°
2026-05-07 08:07 40.62597 -109.39354 33010 ft 511 kts 50°
2026-05-07 08:08 40.67203 -109.32177 33011 ft 515 kts 50°
2026-05-07 08:08 40.71817 -109.24966 33010 ft 515 kts 50°
2026-05-07 08:09 40.76431 -109.17743 33009 ft 516 kts 50°
2026-05-07 08:09 40.81032 -109.10521 33004 ft 513 kts 50°
2026-05-07 08:10 40.85595 -109.03342 33004 ft 509 kts 50°
2026-05-07 08:10 40.90148 -108.96162 33000 ft 512 kts 50°
2026-05-07 08:11 40.94734 -108.88911 33000 ft 514 kts 50°
2026-05-07 08:11 40.99327 -108.81634 33002 ft 513 kts 50°
2026-05-07 08:12 41.03892 -108.74384 33002 ft 512 kts 50°
2026-05-07 08:12 41.08446 -108.67133 33001 ft 512 kts 50°
2026-05-07 08:13 41.12997 -108.59870 33001 ft 512 kts 50°
2026-05-07 08:13 41.17548 -108.52589 33002 ft 513 kts 50°
2026-05-07 08:14 41.22093 -108.45301 33002 ft 512 kts 50°
2026-05-07 08:14 41.26631 -108.38007 33004 ft 512 kts 50°
2026-05-07 08:15 41.31163 -108.30704 33005 ft 512 kts 50°
2026-05-07 08:15 41.35690 -108.23392 33006 ft 512 kts 50°
2026-05-07 08:16 41.40210 -108.16074 33005 ft 512 kts 50°
2026-05-07 08:16 41.44734 -108.08732 33006 ft 512 kts 50°
2026-05-07 08:17 41.49251 -108.01383 33007 ft 512 kts 50°
2026-05-07 08:17 41.53761 -107.94028 33008 ft 512 kts 50°
2026-05-07 08:18 41.58264 -107.86666 33008 ft 512 kts 51°
2026-05-07 08:18 41.62768 -107.79283 33008 ft 513 kts 51°
2026-05-07 08:19 41.67272 -107.71884 33009 ft 513 kts 51°
2026-05-07 08:19 41.71769 -107.64478 33009 ft 513 kts 51°
2026-05-07 08:20 41.76202 -107.57003 33020 ft 513 kts 54°
2026-05-07 08:20 41.80290 -107.49178 33007 ft 512 kts 55°
2026-05-07 08:21 41.84376 -107.41350 33009 ft 513 kts 55°
2026-05-07 08:21 41.88462 -107.33497 33011 ft 514 kts 55°
2026-05-07 08:22 41.92547 -107.25625 33012 ft 514 kts 55°
2026-05-07 08:22 41.96617 -107.17764 33009 ft 512 kts 55°
2026-05-07 08:23 42.00687 -107.09880 33008 ft 513 kts 55°
2026-05-07 08:23 42.04723 -107.02043 33010 ft 513 kts 55°
2026-05-07 08:24 42.08776 -106.94153 33010 ft 513 kts 55°
2026-05-07 08:24 42.12825 -106.86249 33010 ft 512 kts 55°
2026-05-07 08:25 42.16875 -106.78322 33010 ft 514 kts 55°
2026-05-07 08:25 42.20238 -106.71725 33011 ft 515 kts 55°
2026-05-07 08:26 42.26307 -106.59781 33011 ft 514 kts 55°
2026-05-07 08:26 42.30344 -106.51810 33011 ft 514 kts 56°
2026-05-07 08:27 42.34376 -106.43829 33006 ft 514 kts 56°
2026-05-07 08:27 42.38397 -106.35847 33007 ft 514 kts 56°
2026-05-07 08:28 42.42463 -106.27755 33007 ft 525 kts 56°
2026-05-07 08:28 42.46560 -106.19578 33009 ft 525 kts 56°
2026-05-07 08:29 42.50661 -106.11372 33012 ft 526 kts 56°
2026-05-07 08:29 42.54754 -106.03159 33011 ft 526 kts 56°
2026-05-07 08:30 42.58874 -105.94869 33012 ft 531 kts 56°
2026-05-07 08:30 42.62997 -105.86551 33013 ft 531 kts 56°
2026-05-07 08:31 42.67109 -105.78231 33008 ft 530 kts 56°
2026-05-07 08:31 42.71236 -105.69857 33010 ft 529 kts 56°
2026-05-07 08:32 42.75322 -105.61543 33008 ft 527 kts 56°
2026-05-07 08:32 42.79387 -105.53247 33008 ft 526 kts 56°
2026-05-07 08:33 42.83443 -105.44949 33009 ft 526 kts 56°
2026-05-07 08:33 42.87490 -105.36646 33008 ft 526 kts 56°
2026-05-07 08:34 42.91539 -105.28314 33009 ft 527 kts 56°
2026-05-07 08:34 42.95579 -105.19979 33010 ft 526 kts 56°
2026-05-07 08:35 42.99610 -105.11638 33009 ft 526 kts 56°
2026-05-07 08:35 43.03629 -105.03300 33010 ft 526 kts 56°
2026-05-07 08:36 43.07643 -104.94946 33010 ft 525 kts 57°
2026-05-07 08:36 43.11647 -104.86590 33010 ft 525 kts 57°
2026-05-07 08:37 43.15646 -104.78222 33010 ft 525 kts 57°
2026-05-07 08:37 43.19636 -104.69848 33010 ft 525 kts 57°
2026-05-07 08:38 43.23615 -104.61475 33011 ft 524 kts 57°
2026-05-07 08:38 43.27587 -104.53091 33011 ft 524 kts 57°
2026-05-07 08:39 43.31554 -104.44696 33011 ft 524 kts 57°
2026-05-07 08:39 43.35515 -104.36289 33008 ft 524 kts 57°
2026-05-07 08:40 43.39464 -104.27882 33010 ft 524 kts 57°
2026-05-07 08:40 43.43407 -104.19464 33010 ft 523 kts 57°
2026-05-07 08:41 43.47345 -104.11034 33010 ft 524 kts 57°
2026-05-07 08:41 43.51277 -104.02592 33010 ft 524 kts 57°
2026-05-07 08:42 43.55177 -103.94194 33011 ft 524 kts 57°
2026-05-07 08:42 43.59104 -103.85713 33012 ft 525 kts 57°
2026-05-07 08:43 43.63035 -103.77199 33009 ft 527 kts 57°
2026-05-07 08:43 43.66969 -103.68655 33009 ft 528 kts 57°
2026-05-07 08:44 43.70899 -103.60092 33010 ft 527 kts 57°
2026-05-07 08:44 43.74823 -103.51519 33010 ft 527 kts 57°
2026-05-07 08:45 43.78737 -103.42943 33011 ft 526 kts 58°
2026-05-07 08:45 43.82636 -103.34373 33011 ft 525 kts 58°
2026-05-07 08:46 43.86515 -103.25821 33011 ft 523 kts 58°
2026-05-07 08:46 43.90382 -103.17271 33012 ft 524 kts 58°
2026-05-07 08:47 43.94239 -103.08719 33010 ft 523 kts 58°
2026-05-07 08:47 43.98011 -103.00101 33020 ft 522 kts 63°
2026-05-07 08:48 44.00950 -102.90879 33008 ft 522 kts 68°
2026-05-07 08:48 44.03901 -102.81662 33010 ft 523 kts 64°
2026-05-07 08:49 44.06887 -102.72461 33008 ft 521 kts 66°
2026-05-07 08:49 44.09804 -102.63220 33009 ft 522 kts 65°
2026-05-07 08:50 44.12771 -102.53998 33011 ft 522 kts 66°
2026-05-07 08:50 44.15683 -102.44752 33008 ft 521 kts 66°
2026-05-07 08:51 44.18618 -102.35517 33010 ft 522 kts 66°
2026-05-07 08:51 44.21525 -102.26260 33010 ft 521 kts 66°
2026-05-07 08:52 44.24439 -102.16999 33011 ft 521 kts 66°
2026-05-07 08:52 44.27336 -102.07730 33011 ft 521 kts 66°
2026-05-07 08:53 44.30229 -101.98453 33011 ft 522 kts 66°
2026-05-07 08:53 44.33114 -101.89164 33010 ft 521 kts 66°
2026-05-07 08:54 44.35972 -101.79930 33011 ft 521 kts 66°
2026-05-07 08:54 44.38841 -101.70628 33010 ft 521 kts 66°
2026-05-07 08:55 44.41701 -101.61321 33010 ft 521 kts 66°
2026-05-07 08:55 44.44552 -101.52010 33011 ft 520 kts 66°
2026-05-07 08:56 44.47396 -101.42687 33012 ft 520 kts 67°
2026-05-07 08:56 44.50230 -101.33364 33010 ft 520 kts 67°
2026-05-07 08:57 44.53058 -101.24026 33011 ft 521 kts 67°
2026-05-07 08:57 44.55877 -101.14683 33011 ft 520 kts 67°
2026-05-07 08:58 44.58688 -101.05332 33009 ft 520 kts 67°
2026-05-07 08:58 44.61490 -100.95980 33010 ft 520 kts 67°
2026-05-07 08:59 44.64282 -100.86622 33010 ft 519 kts 67°
2026-05-07 08:59 44.67069 -100.77249 33010 ft 520 kts 67°
2026-05-07 09:00 44.69848 -100.67869 33011 ft 520 kts 67°
2026-05-07 09:00 44.72615 -100.58492 33012 ft 520 kts 67°
2026-05-07 09:01 44.75378 -100.49096 33007 ft 520 kts 67°
2026-05-07 09:01 44.78131 -100.39694 33009 ft 520 kts 68°
2026-05-07 09:02 44.80879 -100.30281 33009 ft 520 kts 68°
2026-05-07 09:02 44.83601 -100.20917 33009 ft 520 kts 68°
2026-05-07 09:03 44.86331 -100.11489 33008 ft 520 kts 68°
2026-05-07 09:03 44.89056 -100.02046 33007 ft 520 kts 68°
2026-05-07 09:04 44.91774 -99.92589 33010 ft 520 kts 68°
2026-05-07 09:04 44.94402 -99.83413 33010 ft 520 kts 68°
2026-05-07 09:05 44.97103 -99.73943 33011 ft 520 kts 68°
2026-05-07 09:05 44.99799 -99.64459 33011 ft 520 kts 68°
2026-05-07 09:06 45.02486 -99.54967 33010 ft 520 kts 68°
2026-05-07 09:06 45.05164 -99.45469 33011 ft 519 kts 68°
2026-05-07 09:07 45.07834 -99.35965 33012 ft 520 kts 68°
2026-05-07 09:07 45.10493 -99.26463 33010 ft 519 kts 68°
2026-05-07 09:08 45.13145 -99.16947 33009 ft 519 kts 68°
2026-05-07 09:08 45.15341 -99.09038 33009 ft 519 kts 68°
2026-05-07 09:09 45.17977 -98.99513 33010 ft 519 kts 69°
2026-05-07 09:09 45.20604 -98.89983 33012 ft 519 kts 69°
2026-05-07 09:10 45.23221 -98.80452 33011 ft 518 kts 69°
2026-05-07 09:10 45.25831 -98.70907 33011 ft 519 kts 69°
2026-05-07 09:11 45.28433 -98.61355 33011 ft 519 kts 69°
2026-05-07 09:11 45.31026 -98.51796 33011 ft 518 kts 69°
2026-05-07 09:12 45.33612 -98.42227 33011 ft 519 kts 69°
2026-05-07 09:12 45.36188 -98.32657 33010 ft 519 kts 69°
2026-05-07 09:13 45.38758 -98.23069 33010 ft 518 kts 69°
2026-05-07 09:13 45.41319 -98.13475 33011 ft 519 kts 69°
2026-05-07 09:14 45.43872 -98.03873 33010 ft 518 kts 69°
2026-05-07 09:14 45.46417 -97.94263 33011 ft 519 kts 69°
2026-05-07 09:15 45.48956 -97.84639 33011 ft 520 kts 69°
2026-05-07 09:15 45.51488 -97.74999 33009 ft 519 kts 69°
2026-05-07 09:16 45.54015 -97.65339 33010 ft 520 kts 69°
2026-05-07 09:16 45.56532 -97.55677 33009 ft 520 kts 69°
2026-05-07 09:17 45.59043 -97.45997 33010 ft 519 kts 70°
2026-05-07 09:17 45.61546 -97.36310 33011 ft 521 kts 70°
2026-05-07 09:18 45.64041 -97.26614 33011 ft 519 kts 70°
2026-05-07 09:18 45.66528 -97.16905 33010 ft 521 kts 70°
2026-05-07 09:19 45.69003 -97.07206 33008 ft 518 kts 70°
2026-05-07 09:19 45.71465 -96.97515 33009 ft 518 kts 70°
2026-05-07 09:20 45.73919 -96.87816 33009 ft 519 kts 70°
2026-05-07 09:20 45.76295 -96.78386 33008 ft 518 kts 70°
2026-05-07 09:21 45.78733 -96.68668 33009 ft 518 kts 70°
2026-05-07 09:21 45.81160 -96.58953 33010 ft 518 kts 70°
2026-05-07 09:22 45.83580 -96.49225 33009 ft 517 kts 70°
2026-05-07 09:22 45.85976 -96.39552 33011 ft 518 kts 70°
2026-05-07 09:23 45.88378 -96.29813 33011 ft 518 kts 70°
2026-05-07 09:23 45.90774 -96.20057 33012 ft 518 kts 70°
2026-05-07 09:24 45.93161 -96.10293 33012 ft 519 kts 70°
2026-05-07 09:24 45.95541 -96.00517 33009 ft 518 kts 71°
2026-05-07 09:25 45.97913 -95.90733 33009 ft 518 kts 71°
2026-05-07 09:25 46.00277 -95.80938 33010 ft 519 kts 71°
2026-05-07 09:26 46.02634 -95.71126 33010 ft 518 kts 71°
2026-05-07 09:26 46.04984 -95.61303 33012 ft 519 kts 71°
2026-05-07 09:27 46.07323 -95.51481 33011 ft 519 kts 71°
2026-05-07 09:28 46.10820 -95.36716 33010 ft 519 kts 71°
2026-05-07 09:28 46.13141 -95.26862 33009 ft 519 kts 71°
2026-05-07 09:29 46.15453 -95.17000 33010 ft 518 kts 71°
2026-05-07 09:29 46.17695 -95.07394 33011 ft 519 kts 71°
2026-05-07 09:30 46.19990 -94.97520 33010 ft 519 kts 71°
2026-05-07 09:30 46.22276 -94.87636 33010 ft 519 kts 71°
2026-05-07 09:31 46.24552 -94.77749 33012 ft 519 kts 71°
2026-05-07 09:31 46.26820 -94.67854 33010 ft 518 kts 71°
2026-05-07 09:32 46.29079 -94.57955 33010 ft 519 kts 72°
2026-05-07 09:32 46.31329 -94.48048 33011 ft 519 kts 72°
2026-05-07 09:33 46.33571 -94.38128 33007 ft 518 kts 72°
2026-05-07 09:33 46.35803 -94.28209 33010 ft 519 kts 72°
2026-05-07 09:34 46.38027 -94.18276 33010 ft 518 kts 72°
2026-05-07 09:34 46.40244 -94.08332 33010 ft 519 kts 72°
2026-05-07 09:35 46.42451 -93.98383 33011 ft 519 kts 72°
2026-05-07 09:35 46.44651 -93.88421 33011 ft 518 kts 72°
2026-05-07 09:36 46.46842 -93.78451 33011 ft 519 kts 72°
2026-05-07 09:36 46.49022 -93.68483 33010 ft 518 kts 72°
2026-05-07 09:37 46.51197 -93.58495 33009 ft 519 kts 72°
2026-05-07 09:37 46.53361 -93.48505 33009 ft 519 kts 72°
2026-05-07 09:38 46.55517 -93.38504 33009 ft 518 kts 72°
2026-05-07 09:38 46.57663 -93.28503 33010 ft 519 kts 72°
2026-05-07 09:39 46.59801 -93.18488 33009 ft 518 kts 72°
2026-05-07 09:39 46.61919 -93.08521 33010 ft 519 kts 73°
2026-05-07 09:40 46.64039 -92.98495 33011 ft 519 kts 73°
2026-05-07 09:40 46.66152 -92.88451 33010 ft 518 kts 73°
2026-05-07 09:41 46.68256 -92.78400 33012 ft 519 kts 73°
2026-05-07 09:41 46.70351 -92.68344 33009 ft 518 kts 73°
2026-05-07 09:42 46.72436 -92.58282 33010 ft 519 kts 73°
2026-05-07 09:42 46.74513 -92.48211 33011 ft 519 kts 73°
2026-05-07 09:43 46.76582 -92.38130 33009 ft 518 kts 73°
2026-05-07 09:43 46.78642 -92.28039 33011 ft 519 kts 73°
2026-05-07 09:44 46.80882 -92.18039 33017 ft 520 kts 65°
2026-05-07 09:44 46.84300 -92.08811 33011 ft 516 kts 58°
2026-05-07 09:45 46.87878 -91.99745 33008 ft 515 kts 63°
2026-05-07 09:45 46.91114 -91.90411 33008 ft 514 kts 61°
2026-05-07 09:46 46.94569 -91.81249 33012 ft 514 kts 62°
2026-05-07 09:46 46.97867 -91.71970 33010 ft 514 kts 62°
2026-05-07 09:47 47.01247 -91.62742 33011 ft 514 kts 62°
2026-05-07 09:47 47.04571 -91.53465 33010 ft 514 kts 62°
2026-05-07 09:48 47.07913 -91.44193 33010 ft 514 kts 62°
2026-05-07 09:48 47.11236 -91.34904 33012 ft 514 kts 62°
2026-05-07 09:49 47.14557 -91.25599 33012 ft 514 kts 62°
2026-05-07 09:49 47.17871 -91.16282 33009 ft 514 kts 62°
2026-05-07 09:50 47.21155 -91.07012 33010 ft 514 kts 62°
2026-05-07 09:50 47.24453 -90.97673 33010 ft 515 kts 62°
2026-05-07 09:51 47.27745 -90.88315 33012 ft 515 kts 62°
2026-05-07 09:51 47.31030 -90.78946 33012 ft 515 kts 63°
2026-05-07 09:52 47.34308 -90.69562 33011 ft 515 kts 63°
2026-05-07 09:52 47.37579 -90.60166 33011 ft 515 kts 63°
2026-05-07 09:53 47.40841 -90.50762 33012 ft 515 kts 63°
2026-05-07 09:53 47.44097 -90.41341 33011 ft 515 kts 63°
2026-05-07 09:54 47.46818 -90.33439 33010 ft 515 kts 63°
2026-05-07 09:54 47.50061 -90.23994 33012 ft 515 kts 63°
2026-05-07 09:55 47.53296 -90.14536 33012 ft 515 kts 63°
2026-05-07 09:55 47.56524 -90.05066 33011 ft 515 kts 63°
2026-05-07 09:56 47.59744 -89.95582 33011 ft 515 kts 63°
2026-05-07 09:56 47.62936 -89.86150 33010 ft 515 kts 63°
2026-05-07 09:57 47.66141 -89.76641 33010 ft 515 kts 63°
2026-05-07 09:57 47.69360 -89.67057 33010 ft 515 kts 63°
2026-05-07 09:58 47.72550 -89.57524 33011 ft 515 kts 63°
2026-05-07 09:58 47.75710 -89.48047 33012 ft 515 kts 63°
2026-05-07 09:59 47.78885 -89.38489 33010 ft 516 kts 64°
2026-05-07 09:59 47.81980 -89.29136 33011 ft 516 kts 64°
2026-05-07 10:00 47.85140 -89.19551 33011 ft 516 kts 64°
2026-05-07 10:00 47.88314 -89.09887 33010 ft 516 kts 64°
2026-05-07 10:01 47.91460 -89.00275 33012 ft 516 kts 64°
2026-05-07 10:01 47.94597 -88.90653 33012 ft 516 kts 64°
2026-05-07 10:02 47.97724 -88.81026 33011 ft 516 kts 64°
2026-05-07 10:02 48.00845 -88.71377 33010 ft 516 kts 64°
2026-05-07 10:03 48.03960 -88.61715 33011 ft 516 kts 64°
2026-05-07 10:03 48.07064 -88.52046 33010 ft 516 kts 64°
2026-05-07 10:04 48.10162 -88.42363 33011 ft 516 kts 64°
2026-05-07 10:04 48.13250 -88.32669 33011 ft 516 kts 64°
2026-05-07 10:05 48.16329 -88.22969 33009 ft 516 kts 64°
2026-05-07 10:05 48.19402 -88.13251 33009 ft 516 kts 64°
2026-05-07 10:06 48.22467 -88.03520 33010 ft 516 kts 64°
2026-05-07 10:06 48.25524 -87.93778 33012 ft 516 kts 65°
2026-05-07 10:07 48.28571 -87.84029 33011 ft 516 kts 65°
2026-05-07 10:07 48.31612 -87.74261 33011 ft 516 kts 65°
2026-05-07 10:08 48.34644 -87.64482 33011 ft 516 kts 65°
2026-05-07 10:08 48.37669 -87.54692 33011 ft 516 kts 65°
2026-05-07 10:09 48.40683 -87.44894 33011 ft 516 kts 65°
2026-05-07 10:09 48.43691 -87.35078 33012 ft 516 kts 65°
2026-05-07 10:10 48.46691 -87.25250 33012 ft 516 kts 65°
2026-05-07 10:10 48.49682 -87.15412 33010 ft 517 kts 65°
2026-05-07 10:11 48.52664 -87.05565 33010 ft 516 kts 65°
2026-05-07 10:11 48.55639 -86.95701 33010 ft 516 kts 65°
2026-05-07 10:12 48.58606 -86.85825 33011 ft 517 kts 65°
2026-05-07 10:12 48.61564 -86.75938 33011 ft 517 kts 65°
2026-05-07 10:13 48.64513 -86.66044 33010 ft 516 kts 65°
2026-05-07 10:13 48.67455 -86.56131 33011 ft 516 kts 66°
2026-05-07 10:14 48.70388 -86.46207 33012 ft 517 kts 66°
2026-05-07 10:14 48.73313 -86.36273 33008 ft 517 kts 66°
2026-05-07 10:15 48.76041 -86.26183 33007 ft 517 kts 68°
2026-05-07 10:15 48.78777 -86.16079 33011 ft 519 kts 68°
2026-05-07 10:16 48.81401 -86.05911 33011 ft 517 kts 68°
2026-05-07 10:16 48.84078 -85.95772 33010 ft 517 kts 68°
2026-05-07 10:17 48.86710 -85.85598 33011 ft 517 kts 68°
2026-05-07 10:17 48.89357 -85.75408 33008 ft 519 kts 68°
2026-05-07 10:18 48.91984 -85.65212 33008 ft 518 kts 69°
2026-05-07 10:18 48.94588 -85.55073 33007 ft 518 kts 69°
2026-05-07 10:19 48.97201 -85.44851 33008 ft 518 kts 69°
2026-05-07 10:19 48.99803 -85.34622 33009 ft 518 kts 69°
2026-05-07 10:20 49.02399 -85.24376 33008 ft 518 kts 69°
2026-05-07 10:20 49.04984 -85.14119 33010 ft 518 kts 69°
2026-05-07 10:21 49.07560 -85.03860 33009 ft 518 kts 69°
2026-05-07 10:21 49.10125 -84.93594 33009 ft 518 kts 69°
2026-05-07 10:22 49.12683 -84.83310 33011 ft 518 kts 69°
2026-05-07 10:22 49.15230 -84.73020 33009 ft 519 kts 69°
2026-05-07 10:23 49.17769 -84.62716 33010 ft 517 kts 69°
2026-05-07 10:23 49.20298 -84.52406 33011 ft 518 kts 69°
2026-05-07 10:24 49.22817 -84.42088 33010 ft 518 kts 69°
2026-05-07 10:24 49.25327 -84.31759 33011 ft 517 kts 69°
2026-05-07 10:25 49.27829 -84.21418 33011 ft 518 kts 70°
2026-05-07 10:25 49.30320 -84.11068 33011 ft 518 kts 70°
2026-05-07 10:26 49.32804 -84.00702 33009 ft 518 kts 70°
2026-05-07 10:26 49.35276 -83.90334 33010 ft 519 kts 70°
2026-05-07 10:27 49.37740 -83.79952 33010 ft 517 kts 70°
2026-05-07 10:27 49.40196 -83.69555 33010 ft 518 kts 70°
2026-05-07 10:28 49.42640 -83.59157 33010 ft 518 kts 70°
2026-05-07 10:28 49.45074 -83.48754 33009 ft 517 kts 70°
2026-05-07 10:29 49.47499 -83.38336 33012 ft 518 kts 70°
2026-05-07 10:29 49.49914 -83.27911 33010 ft 518 kts 70°
2026-05-07 10:30 49.53520 -83.12251 33011 ft 517 kts 70°
2026-05-07 10:30 49.55910 -83.01807 33011 ft 518 kts 70°
2026-05-07 10:31 49.58244 -82.91559 33010 ft 517 kts 70°
2026-05-07 10:31 49.60617 -82.81089 33011 ft 517 kts 71°
2026-05-07 10:32 49.62980 -82.70613 33011 ft 518 kts 71°
2026-05-07 10:32 49.65333 -82.60127 33010 ft 517 kts 71°
2026-05-07 10:33 49.67677 -82.49627 33008 ft 518 kts 71°
2026-05-07 10:33 49.69978 -82.39270 33009 ft 517 kts 71°
2026-05-07 10:34 49.71911 -82.30528 33009 ft 518 kts 71°
2026-05-07 10:34 49.74229 -82.20000 33009 ft 517 kts 71°
2026-05-07 10:35 49.76538 -82.09456 33010 ft 517 kts 71°
2026-05-07 10:35 49.78835 -81.98913 33010 ft 518 kts 71°
2026-05-07 10:36 49.81123 -81.88359 33010 ft 517 kts 71°
2026-05-07 10:36 49.83403 -81.77789 33010 ft 518 kts 71°
2026-05-07 10:37 49.85673 -81.67210 33010 ft 517 kts 71°
2026-05-07 10:37 49.87933 -81.56622 33011 ft 517 kts 71°
2026-05-07 10:38 49.90183 -81.46024 33011 ft 518 kts 72°
2026-05-07 10:38 49.92425 -81.35410 33011 ft 517 kts 72°
2026-05-07 10:39 49.94657 -81.24787 33011 ft 518 kts 72°
2026-05-07 10:39 49.96877 -81.14164 33010 ft 517 kts 72°
2026-05-07 10:40 49.99090 -81.03522 33011 ft 517 kts 72°
2026-05-07 10:40 50.01292 -80.92872 33009 ft 518 kts 72°
2026-05-07 10:41 50.03485 -80.82210 33007 ft 517 kts 72°
2026-05-07 10:41 50.05668 -80.71541 33009 ft 518 kts 72°
2026-05-07 10:42 50.07843 -80.60853 33009 ft 518 kts 72°
2026-05-07 10:42 50.10006 -80.50164 33008 ft 517 kts 72°
2026-05-07 10:43 50.12161 -80.39460 33011 ft 518 kts 72°
2026-05-07 10:43 50.14305 -80.28747 33008 ft 517 kts 72°
2026-05-07 10:44 50.16441 -80.18021 33009 ft 518 kts 72°
2026-05-07 10:44 50.18565 -80.07295 33010 ft 518 kts 73°
2026-05-07 10:45 50.20683 -79.96551 33010 ft 517 kts 72°
2026-05-07 10:45 50.22849 -79.85828 33011 ft 518 kts 72°
2026-05-07 10:46 50.24981 -79.75088 33010 ft 518 kts 73°
2026-05-07 10:46 50.27113 -79.64336 33010 ft 517 kts 72°
2026-05-07 10:47 50.29233 -79.53577 33012 ft 518 kts 73°
2026-05-07 10:47 50.31341 -79.42810 33010 ft 517 kts 73°
2026-05-07 10:48 50.33440 -79.32041 33010 ft 518 kts 73°
2026-05-07 10:48 50.35528 -79.21260 33008 ft 517 kts 73°
2026-05-07 10:49 50.37607 -79.10471 33007 ft 517 kts 73°
2026-05-07 10:49 50.39673 -78.99678 33008 ft 518 kts 73°
2026-05-07 10:50 50.41730 -78.88878 33009 ft 517 kts 73°
2026-05-07 10:50 50.43777 -78.78066 33010 ft 517 kts 73°
2026-05-07 10:51 50.45816 -78.67239 33009 ft 518 kts 73°
2026-05-07 10:51 50.47844 -78.56401 33009 ft 517 kts 73°
2026-05-07 10:52 50.49864 -78.45547 33011 ft 518 kts 73°
2026-05-07 10:52 50.51871 -78.34695 33009 ft 518 kts 73°
2026-05-07 10:53 50.53871 -78.23822 33010 ft 517 kts 74°
2026-05-07 10:53 50.55860 -78.12944 33011 ft 518 kts 74°
2026-05-07 10:54 50.57838 -78.02057 33010 ft 517 kts 74°
2026-05-07 10:54 50.59807 -77.91161 33011 ft 518 kts 74°
2026-05-07 10:55 50.61765 -77.80257 33011 ft 518 kts 74°
2026-05-07 10:55 50.63701 -77.69409 33008 ft 517 kts 74°
2026-05-07 10:56 50.65639 -77.58480 33010 ft 519 kts 74°
2026-05-07 10:56 50.67567 -77.47550 33009 ft 517 kts 74°
2026-05-07 10:57 50.69485 -77.36601 33010 ft 518 kts 75°
2026-05-07 10:57 50.71393 -77.25648 33009 ft 517 kts 75°
2026-05-07 10:58 50.73292 -77.14679 33011 ft 518 kts 75°
2026-05-07 10:58 50.75180 -77.03702 33010 ft 517 kts 75°
2026-05-07 10:59 50.77056 -76.92726 33010 ft 518 kts 75°
2026-05-07 10:59 50.78923 -76.81737 33011 ft 518 kts 75°
2026-05-07 11:00 50.80779 -76.70739 33011 ft 517 kts 75°
2026-05-07 11:00 50.82626 -76.59728 33009 ft 518 kts 75°
2026-05-07 11:01 50.84461 -76.48712 33010 ft 517 kts 75°
2026-05-07 11:01 50.86288 -76.37680 33010 ft 518 kts 75°
2026-05-07 11:02 50.88103 -76.26643 33010 ft 518 kts 75°
2026-05-07 11:02 50.89908 -76.15599 33009 ft 517 kts 75°
2026-05-07 11:03 50.91701 -76.04551 33009 ft 518 kts 75°
2026-05-07 11:03 50.93485 -75.93490 33010 ft 518 kts 76°
2026-05-07 11:04 50.95260 -75.82417 33010 ft 518 kts 76°
2026-05-07 11:04 50.97020 -75.71353 33008 ft 516 kts 76°
2026-05-07 11:05 50.98744 -75.60450 33003 ft 515 kts 76°
2026-05-07 11:05 51.00465 -75.49492 33001 ft 515 kts 76°
2026-05-07 11:06 51.02187 -75.38455 33002 ft 515 kts 76°
2026-05-07 11:06 51.03898 -75.27408 33002 ft 515 kts 76°
2026-05-07 11:07 51.05601 -75.16343 33002 ft 516 kts 76°
2026-05-07 11:07 51.07293 -75.05269 33001 ft 515 kts 76°
2026-05-07 11:08 51.08975 -74.94187 33003 ft 516 kts 76°
2026-05-07 11:08 51.10646 -74.83096 33003 ft 516 kts 76°
2026-05-07 11:09 51.12307 -74.71998 33005 ft 516 kts 76°
2026-05-07 11:09 51.13958 -74.60886 33004 ft 516 kts 77°
2026-05-07 11:10 51.15599 -74.49763 33004 ft 516 kts 77°
2026-05-07 11:10 51.17230 -74.38630 33005 ft 516 kts 77°
2026-05-07 11:11 51.18851 -74.27485 33005 ft 516 kts 77°
2026-05-07 11:11 51.20461 -74.16331 33006 ft 516 kts 77°
2026-05-07 11:12 51.22061 -74.05167 33006 ft 517 kts 77°
2026-05-07 11:12 51.23651 -73.93993 33007 ft 516 kts 77°
2026-05-07 11:13 51.25230 -73.82813 33008 ft 517 kts 77°
2026-05-07 11:13 51.26800 -73.71618 33008 ft 517 kts 77°
2026-05-07 11:14 51.28359 -73.60410 33009 ft 517 kts 77°
2026-05-07 11:14 51.29909 -73.49186 33009 ft 517 kts 77°
2026-05-07 11:15 51.31448 -73.37956 33009 ft 517 kts 77°
2026-05-07 11:15 51.32976 -73.26722 33009 ft 517 kts 78°
2026-05-07 11:16 51.34492 -73.15485 33009 ft 517 kts 78°
2026-05-07 11:16 51.35998 -73.04240 33010 ft 517 kts 78°
2026-05-07 11:17 51.37241 -72.94888 33010 ft 517 kts 78°
2026-05-07 11:17 51.38727 -72.83624 33012 ft 517 kts 78°
2026-05-07 11:18 51.40203 -72.72351 33011 ft 517 kts 78°
2026-05-07 11:18 51.41669 -72.61068 33009 ft 519 kts 78°
2026-05-07 11:19 51.43126 -72.49760 33008 ft 518 kts 78°
2026-05-07 11:19 51.44571 -72.38452 33009 ft 518 kts 78°
2026-05-07 11:20 51.46005 -72.27143 33009 ft 517 kts 78°
2026-05-07 11:20 51.47429 -72.15819 33010 ft 518 kts 78°
2026-05-07 11:21 51.48843 -72.04471 33011 ft 520 kts 78°
2026-05-07 11:21 51.50240 -71.93175 33010 ft 519 kts 79°
2026-05-07 11:22 51.51634 -71.81806 33010 ft 519 kts 79°
2026-05-07 11:22 51.53016 -71.70435 33011 ft 519 kts 79°
2026-05-07 11:23 51.54388 -71.59056 33011 ft 519 kts 79°
2026-05-07 11:23 51.55748 -71.47671 33011 ft 519 kts 79°
2026-05-07 11:24 51.57096 -71.36290 33011 ft 519 kts 79°
2026-05-07 11:24 51.58434 -71.24888 33015 ft 518 kts 79°
2026-05-07 11:25 51.59757 -71.13526 33009 ft 515 kts 79°
2026-05-07 11:25 51.61056 -71.02258 33012 ft 508 kts 79°
2026-05-07 11:26 51.62326 -70.91153 33014 ft 503 kts 79°
2026-05-07 11:26 51.63578 -70.80100 33012 ft 502 kts 79°
2026-05-07 11:27 51.64819 -70.69054 33011 ft 501 kts 79°
2026-05-07 11:27 51.66051 -70.57992 33011 ft 501 kts 80°
2026-05-07 11:28 51.67265 -70.46988 33008 ft 498 kts 80°
2026-05-07 11:28 51.68466 -70.35999 33004 ft 498 kts 80°
2026-05-07 11:29 51.69657 -70.25011 33004 ft 497 kts 80°
2026-05-07 11:29 51.70836 -70.14026 33005 ft 497 kts 80°
2026-05-07 11:30 51.72005 -70.03036 33004 ft 497 kts 80°
2026-05-07 11:30 51.73163 -69.92041 33004 ft 498 kts 80°
2026-05-07 11:31 51.74314 -69.81016 33005 ft 499 kts 80°
2026-05-07 11:31 51.75455 -69.69979 33008 ft 499 kts 81°
2026-05-07 11:32 51.77143 -69.53463 33009 ft 500 kts 81°
2026-05-07 11:33 51.78260 -69.42399 33009 ft 499 kts 81°
2026-05-07 11:33 51.79364 -69.31349 33008 ft 498 kts 81°
2026-05-07 11:34 51.80457 -69.20304 33009 ft 499 kts 81°
2026-05-07 11:34 51.81542 -69.09235 33008 ft 498 kts 81°
2026-05-07 11:35 51.82614 -68.98174 33009 ft 498 kts 81°
2026-05-07 11:35 51.83679 -68.87086 33010 ft 500 kts 81°
2026-05-07 11:36 51.84733 -68.75995 33009 ft 498 kts 81°
2026-05-07 11:36 51.85776 -68.64899 33012 ft 499 kts 81°
2026-05-07 11:37 51.86807 -68.53815 33010 ft 499 kts 81°
2026-05-07 11:37 51.87824 -68.42778 33012 ft 498 kts 81°
2026-05-07 11:38 51.88835 -68.31679 33009 ft 498 kts 82°
2026-05-07 11:38 51.89837 -68.20554 33012 ft 499 kts 82°
2026-05-07 11:39 51.90830 -68.09421 33010 ft 501 kts 82°
2026-05-07 11:39 51.91811 -67.98285 33011 ft 499 kts 82°
2026-05-07 11:40 51.92782 -67.87147 33011 ft 500 kts 82°
2026-05-07 11:40 51.93742 -67.76003 33008 ft 498 kts 82°
2026-05-07 11:41 51.94691 -67.64872 33009 ft 499 kts 82°
2026-05-07 11:41 51.95629 -67.53730 33008 ft 499 kts 82°
2026-05-07 11:42 51.96557 -67.42587 33007 ft 498 kts 82°
2026-05-07 11:42 51.97474 -67.31436 33008 ft 499 kts 82°
2026-05-07 11:43 51.98381 -67.20281 33008 ft 499 kts 82°
2026-05-07 11:43 51.99278 -67.09112 33008 ft 499 kts 82°
2026-05-07 11:44 52.00338 -66.98053 33015 ft 499 kts 74°
2026-05-07 11:44 52.02909 -66.87600 33011 ft 499 kts 64°
2026-05-07 11:45 52.05900 -66.77444 33012 ft 499 kts 68°
2026-05-07 11:45 52.08363 -66.66896 33008 ft 499 kts 68°
2026-05-07 11:46 52.11094 -66.56499 33008 ft 499 kts 67°
2026-05-07 11:46 52.13688 -66.45968 33010 ft 500 kts 68°
2026-05-07 11:47 52.16305 -66.35572 33011 ft 501 kts 67°
2026-05-07 11:47 52.18914 -66.25069 33010 ft 499 kts 68°
2026-05-07 11:48 52.21510 -66.14571 33009 ft 499 kts 68°
2026-05-07 11:48 52.24099 -66.04081 33009 ft 499 kts 68°
2026-05-07 11:49 52.26672 -65.93571 33009 ft 499 kts 68°
2026-05-07 11:49 52.29244 -65.83049 33010 ft 499 kts 68°
2026-05-07 11:50 52.31801 -65.72509 33009 ft 498 kts 68°
2026-05-07 11:50 52.34352 -65.61961 33010 ft 500 kts 68°
2026-05-07 11:51 52.36894 -65.51390 33011 ft 502 kts 68°
2026-05-07 11:51 52.39422 -65.40829 33004 ft 496 kts 69°
2026-05-07 11:52 52.41927 -65.30314 33001 ft 495 kts 69°
2026-05-07 11:52 52.44434 -65.19739 33277 ft 504 kts 69°
2026-05-07 11:52 52.45705 -65.14356 33575 ft 509 kts 69°
2026-05-07 11:53 52.46985 -65.08921 33884 ft 513 kts 69°
2026-05-07 11:53 52.48273 -65.03442 34236 ft 516 kts 69°
2026-05-07 11:53 52.49564 -64.97932 34607 ft 518 kts 69°
2026-05-07 11:53 52.50857 -64.92402 35006 ft 520 kts 69°
2026-05-07 11:54 52.52150 -64.86858 35402 ft 520 kts 69°
2026-05-07 11:54 52.53440 -64.81311 35823 ft 521 kts 69°
2026-05-07 11:54 52.54732 -64.75741 36230 ft 521 kts 69°
2026-05-07 11:54 52.56022 -64.70166 36603 ft 522 kts 69°
2026-05-07 11:55 52.57305 -64.64603 36942 ft 518 kts 69°
2026-05-07 11:55 52.59821 -64.53657 36995 ft 508 kts 69°
2026-05-07 11:56 52.62305 -64.42796 36990 ft 506 kts 69°
2026-05-07 11:56 52.64772 -64.31952 36996 ft 506 kts 69°
2026-05-07 11:57 52.67232 -64.21083 36994 ft 507 kts 69°
2026-05-07 11:57 52.69688 -64.10175 36993 ft 508 kts 70°
2026-05-07 11:58 52.72136 -63.99249 36993 ft 507 kts 70°
2026-05-07 11:58 52.74569 -63.88327 36994 ft 507 kts 70°
2026-05-07 11:59 52.76980 -63.77450 36998 ft 509 kts 70°
2026-05-07 11:59 52.79395 -63.66499 37000 ft 509 kts 70°
2026-05-07 12:00 52.81786 -63.55597 36993 ft 505 kts 70°
2026-05-07 12:00 52.84177 -63.44639 36996 ft 508 kts 70°
2026-05-07 12:01 52.86563 -63.33644 36998 ft 508 kts 70°
2026-05-07 12:01 52.88935 -63.22658 36998 ft 506 kts 70°
2026-05-07 12:02 52.91294 -63.11670 36998 ft 506 kts 70°
2026-05-07 12:02 52.93642 -63.00673 36999 ft 506 kts 70°
2026-05-07 12:03 52.95980 -62.89666 37000 ft 507 kts 70°
2026-05-07 12:03 52.98313 -62.78621 37001 ft 507 kts 71°
2026-05-07 12:04 53.00259 -62.69363 37002 ft 507 kts 71°
2026-05-07 12:04 53.02558 -62.58366 37004 ft 508 kts 71°
2026-05-07 12:05 53.04863 -62.47284 37004 ft 507 kts 71°
2026-05-07 12:05 53.07157 -62.36195 37005 ft 507 kts 71°
2026-05-07 12:06 53.09437 -62.25107 37005 ft 506 kts 71°
2026-05-07 12:06 53.11708 -62.14003 37006 ft 508 kts 71°
2026-05-07 12:07 53.13972 -62.02871 37006 ft 507 kts 71°
2026-05-07 12:07 53.16225 -61.91733 37007 ft 508 kts 71°
2026-05-07 12:08 53.18468 -61.80575 37007 ft 507 kts 71°
2026-05-07 12:08 53.20702 -61.69405 37008 ft 507 kts 71°
2026-05-07 12:09 53.22924 -61.58224 37009 ft 508 kts 71°
2026-05-07 12:09 53.25136 -61.47034 37009 ft 508 kts 72°
2026-05-07 12:10 53.27338 -61.35830 37009 ft 508 kts 72°
2026-05-07 12:10 53.29531 -61.24607 37010 ft 508 kts 72°
2026-05-07 12:11 53.31715 -61.13360 37011 ft 509 kts 72°
2026-05-07 12:11 53.33889 -61.02105 37011 ft 508 kts 72°
2026-05-07 12:12 53.36050 -60.90849 37011 ft 507 kts 72°
2026-05-07 12:12 53.38194 -60.79613 37011 ft 506 kts 72°
2026-05-07 12:13 53.40324 -60.68385 37012 ft 506 kts 72°
2026-05-07 12:13 53.42445 -60.57138 37011 ft 507 kts 72°
2026-05-07 12:14 53.44556 -60.45877 37007 ft 505 kts 72°
2026-05-07 12:14 53.46658 -60.34593 37009 ft 508 kts 72°
2026-05-07 12:15 53.48747 -60.23314 37009 ft 504 kts 72°
2026-05-07 12:15 53.50822 -60.12039 37010 ft 506 kts 73°
2026-05-07 12:16 53.52885 -60.00763 37010 ft 505 kts 73°
2026-05-07 12:16 53.54938 -59.89471 37010 ft 504 kts 73°
2026-05-07 12:17 53.56993 -59.78101 37011 ft 505 kts 73°
2026-05-07 12:17 53.59025 -59.66790 37011 ft 505 kts 73°
2026-05-07 12:18 53.61046 -59.55465 37011 ft 504 kts 73°
2026-05-07 12:18 53.63055 -59.44135 37011 ft 505 kts 73°
2026-05-07 12:19 53.65056 -59.32782 37009 ft 507 kts 73°
2026-05-07 12:19 53.67048 -59.21409 37007 ft 505 kts 73°
2026-05-07 12:20 53.69015 -59.10110 37008 ft 505 kts 73°
2026-05-07 12:20 53.70987 -58.98706 37009 ft 509 kts 73°
2026-05-07 12:21 53.72957 -58.87234 37009 ft 509 kts 73°
2026-05-07 12:21 53.74921 -58.75734 37009 ft 510 kts 74°
2026-05-07 12:22 53.76872 -58.64228 37010 ft 508 kts 74°
2026-05-07 12:22 53.78813 -58.52703 37012 ft 509 kts 74°
2026-05-07 12:23 53.80724 -58.41282 37005 ft 503 kts 74°
2026-05-07 12:23 53.82634 -58.29797 37001 ft 504 kts 74°
2026-05-07 12:24 53.84520 -58.18375 37001 ft 504 kts 74°
2026-05-07 12:24 53.86396 -58.06937 37001 ft 504 kts 74°
2026-05-07 12:25 53.88248 -57.95574 37001 ft 504 kts 75°
2026-05-07 12:25 53.90105 -57.84101 37003 ft 505 kts 75°
2026-05-07 12:26 53.91951 -57.72620 37004 ft 504 kts 75°
2026-05-07 12:26 53.93784 -57.61138 37005 ft 504 kts 75°
2026-05-07 12:27 53.95608 -57.49635 37006 ft 505 kts 75°
2026-05-07 12:27 53.97419 -57.38136 37006 ft 505 kts 75°
2026-05-07 12:28 53.99220 -57.26622 37007 ft 503 kts 75°
2026-05-07 12:28 54.01007 -57.15114 37008 ft 504 kts 75°
2026-05-07 12:29 54.02784 -57.03594 37008 ft 503 kts 75°
2026-05-07 12:29 54.05374 -56.92580 37013 ft 503 kts 60°
2026-05-07 12:30 54.09043 -56.82437 37009 ft 502 kts 58°
2026-05-07 12:30 54.12405 -56.71984 37007 ft 504 kts 63°
2026-05-07 12:31 54.15721 -56.61477 37009 ft 503 kts 60°
2026-05-07 12:31 54.19111 -56.51027 37008 ft 503 kts 62°
2026-05-07 12:32 54.22413 -56.40482 37010 ft 504 kts 61°
2026-05-07 12:32 54.25770 -56.29978 37011 ft 503 kts 62°
2026-05-07 12:33 54.30738 -56.14136 37011 ft 504 kts 62°
2026-05-07 12:33 54.34045 -56.03569 37009 ft 504 kts 62°
2026-05-07 12:34 54.37342 -55.92972 37009 ft 503 kts 62°
2026-05-07 12:34 54.40635 -55.82360 37010 ft 504 kts 62°
2026-05-07 12:35 54.43915 -55.71729 37011 ft 504 kts 62°
2026-05-07 12:35 54.47187 -55.61087 37011 ft 504 kts 62°
2026-05-07 12:36 54.50450 -55.50418 37011 ft 504 kts 62°
2026-05-07 12:36 54.53705 -55.39733 37012 ft 504 kts 62°
2026-05-07 12:37 54.56949 -55.29031 37009 ft 504 kts 62°
2026-05-07 12:37 54.60188 -55.18302 37009 ft 504 kts 62°
2026-05-07 12:38 54.63413 -55.07568 37010 ft 504 kts 62°
2026-05-07 12:38 54.66611 -54.96877 37010 ft 504 kts 63°
2026-05-07 12:39 54.69841 -54.86029 37010 ft 504 kts 63°
2026-05-07 12:39 54.73018 -54.75311 37011 ft 504 kts 63°
2026-05-07 12:40 54.76208 -54.64500 37012 ft 505 kts 63°
2026-05-07 12:40 54.79388 -54.53671 37008 ft 504 kts 63°
2026-05-07 12:41 54.82560 -54.42821 37009 ft 504 kts 63°
2026-05-07 12:41 54.85721 -54.31961 37010 ft 505 kts 63°
2026-05-07 12:42 54.88873 -54.21078 37010 ft 505 kts 63°
2026-05-07 12:42 54.92016 -54.10175 37010 ft 504 kts 63°
2026-05-07 12:43 54.95150 -53.99254 37010 ft 505 kts 63°
2026-05-07 12:43 54.98274 -53.88317 37011 ft 505 kts 63°
2026-05-07 12:44 55.01388 -53.77362 37011 ft 504 kts 63°
2026-05-07 12:44 55.04494 -53.66387 37011 ft 504 kts 64°
2026-05-07 12:45 55.07066 -53.57258 37008 ft 505 kts 64°
2026-05-07 12:45 55.10150 -53.46263 37007 ft 504 kts 64°
2026-05-07 12:46 55.13224 -53.35250 37007 ft 504 kts 64°
2026-05-07 12:46 55.16307 -53.24154 37008 ft 505 kts 64°
2026-05-07 12:47 55.19340 -53.13184 37008 ft 505 kts 64°
2026-05-07 12:47 55.22385 -53.02119 37007 ft 503 kts 64°
2026-05-07 12:48 55.25420 -52.91034 37008 ft 504 kts 64°
2026-05-07 12:48 55.28444 -52.79941 37010 ft 505 kts 64°
2026-05-07 12:49 55.31458 -52.68825 37009 ft 505 kts 64°
2026-05-07 12:49 55.34464 -52.57686 37009 ft 503 kts 64°
2026-05-07 12:50 55.37461 -52.46531 37010 ft 505 kts 65°
2026-05-07 12:50 55.40444 -52.35369 37011 ft 506 kts 65°
2026-05-07 12:51 55.43421 -52.24175 37010 ft 504 kts 65°
2026-05-07 12:51 55.46385 -52.12972 37011 ft 504 kts 65°
2026-05-07 12:52 55.49340 -52.01749 37010 ft 505 kts 65°
2026-05-07 12:52 55.52285 -51.90512 37008 ft 505 kts 65°
2026-05-07 12:53 55.55220 -51.79252 37008 ft 504 kts 65°
2026-05-07 12:53 55.58144 -51.67980 37009 ft 505 kts 65°
2026-05-07 12:54 55.61058 -51.56690 37010 ft 506 kts 65°
2026-05-07 12:54 55.63962 -51.45382 37009 ft 504 kts 65°
2026-05-07 12:55 55.66857 -51.34052 37009 ft 504 kts 65°
2026-05-07 12:55 55.69739 -51.22714 37011 ft 506 kts 65°
2026-05-07 12:56 55.72611 -51.11356 37010 ft 505 kts 66°
2026-05-07 12:56 55.75475 -50.99974 37010 ft 504 kts 66°
2026-05-07 12:57 55.78326 -50.88583 37011 ft 505 kts 66°
2026-05-07 12:57 55.81168 -50.77174 37011 ft 505 kts 66°
2026-05-07 12:58 55.84000 -50.65741 37007 ft 504 kts 66°
2026-05-07 12:58 55.86821 -50.54293 37009 ft 506 kts 66°
2026-05-07 12:59 55.89629 -50.42839 37008 ft 505 kts 66°
2026-05-07 12:59 55.92412 -50.31431 37008 ft 504 kts 66°
2026-05-07 13:00 55.95222 -50.19850 37010 ft 506 kts 66°
2026-05-07 13:00 55.97979 -50.08422 37009 ft 505 kts 66°
2026-05-07 13:01 56.00572 -49.96684 37006 ft 504 kts 73°
2026-05-07 13:01 56.02180 -49.84593 37007 ft 501 kts 77°
2026-05-07 13:02 56.03926 -49.72481 37007 ft 500 kts 75°
2026-05-07 13:02 56.05625 -49.60432 37007 ft 500 kts 77°
2026-05-07 13:03 56.07294 -49.48362 37007 ft 500 kts 75°
2026-05-07 13:03 56.08983 -49.36297 37008 ft 500 kts 76°
2026-05-07 13:04 56.10630 -49.24196 37009 ft 500 kts 76°
2026-05-07 13:04 56.12291 -49.12092 37009 ft 500 kts 76°
2026-05-07 13:05 56.13912 -49.00046 37010 ft 500 kts 76°
2026-05-07 13:05 56.15544 -48.87911 37011 ft 501 kts 76°
2026-05-07 13:06 56.17157 -48.75766 37012 ft 501 kts 76°
2026-05-07 13:06 56.18764 -48.63599 37010 ft 502 kts 77°
2026-05-07 13:07 56.20358 -48.51407 37011 ft 501 kts 77°
2026-05-07 13:07 56.21943 -48.39194 37012 ft 502 kts 77°
2026-05-07 13:08 56.23514 -48.26983 37009 ft 502 kts 77°
2026-05-07 13:08 56.25075 -48.14752 37009 ft 502 kts 77°
2026-05-07 13:09 56.26623 -48.02508 37010 ft 502 kts 77°
2026-05-07 13:09 56.28160 -47.90253 37011 ft 502 kts 77°
2026-05-07 13:10 56.29684 -47.77993 37011 ft 502 kts 77°
2026-05-07 13:10 56.31197 -47.65714 37011 ft 502 kts 77°
2026-05-07 13:11 56.32698 -47.53424 37009 ft 503 kts 77°
2026-05-07 13:11 56.34186 -47.41123 37009 ft 502 kts 78°
2026-05-07 13:12 56.35663 -47.28815 37009 ft 502 kts 78°
2026-05-07 13:12 56.37128 -47.16490 37010 ft 503 kts 78°
2026-05-07 13:13 56.38581 -47.04156 37010 ft 503 kts 78°
2026-05-07 13:13 56.40022 -46.91808 37011 ft 502 kts 78°
2026-05-07 13:14 56.41450 -46.79457 37011 ft 503 kts 78°
2026-05-07 13:14 56.42867 -46.67090 37012 ft 503 kts 78°
2026-05-07 13:15 56.44271 -46.54711 37008 ft 502 kts 78°
2026-05-07 13:15 56.45664 -46.42320 37009 ft 503 kts 78°
2026-05-07 13:16 56.47044 -46.29920 37010 ft 503 kts 78°
2026-05-07 13:16 56.48412 -46.17511 37010 ft 503 kts 79°
2026-05-07 13:17 56.49766 -46.05108 37009 ft 502 kts 79°
2026-05-07 13:17 56.51108 -45.92691 37009 ft 503 kts 79°
2026-05-07 13:18 56.52438 -45.80266 37010 ft 503 kts 79°
2026-05-07 13:18 56.53755 -45.67830 37009 ft 502 kts 79°
2026-05-07 13:19 56.55060 -45.55390 37010 ft 502 kts 79°
2026-05-07 13:19 56.56352 -45.42934 37011 ft 503 kts 79°
2026-05-07 13:20 56.57633 -45.30470 37011 ft 503 kts 79°
2026-05-07 13:20 56.58901 -45.17994 37011 ft 502 kts 79°
2026-05-07 13:21 56.60156 -45.05515 37007 ft 503 kts 79°
2026-05-07 13:21 56.61399 -44.93023 37009 ft 504 kts 79°
2026-05-07 13:22 56.62630 -44.80520 37009 ft 503 kts 80°
2026-05-07 13:22 56.63849 -44.68005 37009 ft 502 kts 80°
2026-05-07 13:23 56.65055 -44.55490 37010 ft 504 kts 80°
2026-05-07 13:23 56.66240 -44.43044 37010 ft 503 kts 80°
2026-05-07 13:24 56.67422 -44.30503 37010 ft 502 kts 80°
2026-05-07 13:24 56.68590 -44.17958 37011 ft 503 kts 80°
2026-05-07 13:25 56.69746 -44.05402 37012 ft 504 kts 81°
2026-05-07 13:25 56.70890 -43.92837 37007 ft 503 kts 81°
2026-05-07 13:26 56.72021 -43.80258 37008 ft 502 kts 81°
2026-05-07 13:26 56.73139 -43.67680 37009 ft 504 kts 81°
2026-05-07 13:27 56.74245 -43.55085 37009 ft 504 kts 81°
2026-05-07 13:27 56.75338 -43.42491 37009 ft 502 kts 81°
2026-05-07 13:28 56.76419 -43.29879 37010 ft 503 kts 81°
2026-05-07 13:28 56.77307 -43.19401 37010 ft 503 kts 81°
2026-05-07 13:29 56.78346 -43.06998 36988 ft 480 kts 81°
2026-05-07 13:29 56.78838 -43.01066 36992 ft 468 kts 81°
2026-05-07 13:29 56.79319 -42.95236 36992 ft 462 kts 81°
2026-05-07 13:30 56.80261 -42.83724 36840 ft 457 kts 81°
2026-05-07 13:30 56.80729 -42.77949 36247 ft 462 kts 82°
2026-05-07 13:30 56.81198 -42.72130 35690 ft 465 kts 82°
2026-05-07 13:31 56.81668 -42.66268 35130 ft 468 kts 82°
2026-05-07 13:31 56.82137 -42.60373 34592 ft 470 kts 82°
2026-05-07 13:31 56.82606 -42.54452 34033 ft 472 kts 82°
2026-05-07 13:31 56.83073 -42.48507 33483 ft 474 kts 82°
2026-05-07 13:32 56.83539 -42.42542 32916 ft 475 kts 82°
2026-05-07 13:32 56.84004 -42.36564 32329 ft 477 kts 82°
2026-05-07 13:32 56.84467 -42.30561 31742 ft 478 kts 82°
2026-05-07 13:32 56.84928 -42.24541 31130 ft 479 kts 82°
2026-05-07 13:33 56.85388 -42.18503 30501 ft 480 kts 82°
2026-05-07 13:33 56.85842 -42.12500 30068 ft 473 kts 82°
2026-05-07 13:33 56.86730 -42.00636 30016 ft 470 kts 82°
2026-05-07 13:34 56.88037 -41.82901 30015 ft 481 kts 82°
2026-05-07 13:34 56.88492 -41.76645 30020 ft 497 kts 82°
2026-05-07 13:35 56.88951 -41.70288 30004 ft 512 kts 82°
2026-05-07 13:35 56.89881 -41.57254 30000 ft 519 kts 82°
2026-05-07 13:36 56.90801 -41.44161 30019 ft 519 kts 83°
2026-05-07 13:36 56.91709 -41.31047 30003 ft 520 kts 83°
2026-05-07 13:37 56.92603 -41.17926 30002 ft 519 kts 83°
2026-05-07 13:37 56.93478 -41.04872 30018 ft 520 kts 83°
2026-05-07 13:38 56.94344 -40.91736 30013 ft 520 kts 83°
2026-05-07 13:38 56.95198 -40.78578 30001 ft 519 kts 83°
2026-05-07 13:39 56.96038 -40.65409 30002 ft 520 kts 83°
2026-05-07 13:39 56.96865 -40.52240 30001 ft 521 kts 83°
2026-05-07 13:40 56.97677 -40.39058 30001 ft 520 kts 83°
2026-05-07 13:40 56.98482 -40.25775 30001 ft 520 kts 84°
2026-05-07 13:41 56.99267 -40.12577 30015 ft 522 kts 84°
2026-05-07 13:41 57.00081 -39.99395 30009 ft 521 kts 80°
2026-05-07 13:42 57.01873 -39.86526 30000 ft 519 kts 73°
2026-05-07 13:42 57.03787 -39.73704 29999 ft 522 kts 77°
2026-05-07 13:43 57.05511 -39.60790 30002 ft 522 kts 75°
2026-05-07 13:43 57.07367 -39.47929 30001 ft 520 kts 76°
2026-05-07 13:44 57.09106 -39.34992 29999 ft 520 kts 76°
2026-05-07 13:44 57.10901 -39.22081 30003 ft 523 kts 76°
2026-05-07 13:45 57.12640 -39.09139 30003 ft 522 kts 76°
2026-05-07 13:45 57.14391 -38.96192 29999 ft 519 kts 76°
2026-05-07 13:46 57.16116 -38.83220 30001 ft 521 kts 76°
2026-05-07 13:46 57.17833 -38.70242 30008 ft 523 kts 76°
2026-05-07 13:47 57.19532 -38.57269 30098 ft 520 kts 76°
2026-05-07 13:47 57.20376 -38.50783 30643 ft 521 kts 76°
2026-05-07 13:47 57.21221 -38.44269 31196 ft 522 kts 76°
2026-05-07 13:47 57.22060 -38.37768 31752 ft 522 kts 76°
2026-05-07 13:48 57.22896 -38.31258 32306 ft 521 kts 77°
2026-05-07 13:48 57.23728 -38.24749 32858 ft 521 kts 77°
2026-05-07 13:48 57.24556 -38.18244 33391 ft 520 kts 77°
2026-05-07 13:48 57.25379 -38.11748 33926 ft 519 kts 77°
2026-05-07 13:49 57.26198 -38.05258 34445 ft 518 kts 77°
2026-05-07 13:49 57.27012 -37.98776 34961 ft 517 kts 77°
2026-05-07 13:49 57.27821 -37.92302 35456 ft 517 kts 77°
2026-05-07 13:49 57.28625 -37.85840 35941 ft 516 kts 77°
2026-05-07 13:50 57.29425 -37.79381 36376 ft 516 kts 77°
2026-05-07 13:50 57.30223 -37.72913 36787 ft 516 kts 77°
2026-05-07 13:50 57.31018 -37.66438 37186 ft 516 kts 77°
2026-05-07 13:50 57.31809 -37.59957 37582 ft 517 kts 77°
2026-05-07 13:51 57.32597 -37.53482 37935 ft 512 kts 77°
2026-05-07 13:51 57.34134 -37.40752 37995 ft 504 kts 77°
2026-05-07 13:52 57.35647 -37.28110 37990 ft 502 kts 77°
2026-05-07 13:52 57.37143 -37.15486 37991 ft 502 kts 77°
2026-05-07 13:53 57.38628 -37.02845 37994 ft 502 kts 78°
2026-05-07 13:53 57.40101 -36.90188 37994 ft 502 kts 78°
2026-05-07 13:54 57.41561 -36.77524 37993 ft 502 kts 78°
2026-05-07 13:54 57.43009 -36.64840 37994 ft 503 kts 78°
2026-05-07 13:55 57.44445 -36.52142 37994 ft 503 kts 78°
2026-05-07 13:55 57.45869 -36.39429 37995 ft 503 kts 78°
2026-05-07 13:56 57.47280 -36.26702 37996 ft 503 kts 78°
2026-05-07 13:56 57.48681 -36.13947 37998 ft 504 kts 78°
2026-05-07 13:57 57.50068 -36.01186 37999 ft 504 kts 78°
2026-05-07 13:57 57.51443 -35.88406 37999 ft 504 kts 78°
2026-05-07 13:58 57.52806 -35.75614 38000 ft 504 kts 79°
2026-05-07 13:58 57.54156 -35.62810 38001 ft 504 kts 79°
2026-05-07 13:59 57.55492 -35.50001 38001 ft 504 kts 79°
2026-05-07 13:59 57.56817 -35.37172 38001 ft 504 kts 79°
2026-05-07 14:00 57.58129 -35.24333 38002 ft 505 kts 79°
2026-05-07 14:00 57.59428 -35.11484 38002 ft 504 kts 79°
2026-05-07 14:01 57.60705 -34.98714 38003 ft 504 kts 79°
2026-05-07 14:01 57.61979 -34.85835 38004 ft 505 kts 79°
2026-05-07 14:02 57.63239 -34.72952 38004 ft 505 kts 79°
2026-05-07 14:02 57.64486 -34.60065 38004 ft 505 kts 79°
2026-05-07 14:03 57.65720 -34.47160 38005 ft 505 kts 80°
2026-05-07 14:03 57.66942 -34.34246 38005 ft 505 kts 80°
2026-05-07 14:04 57.68150 -34.21321 38005 ft 505 kts 80°
2026-05-07 14:04 57.69346 -34.08385 38006 ft 505 kts 80°
2026-05-07 14:05 57.70527 -33.95448 38007 ft 505 kts 80°
2026-05-07 14:05 57.71697 -33.82494 38007 ft 505 kts 80°
2026-05-07 14:06 57.72853 -33.69528 38007 ft 505 kts 81°
2026-05-07 14:06 57.73996 -33.56553 38008 ft 505 kts 81°
2026-05-07 14:07 57.75125 -33.43577 38008 ft 506 kts 81°
2026-05-07 14:07 57.76243 -33.30577 38008 ft 505 kts 81°
2026-05-07 14:08 57.77346 -33.17572 38009 ft 505 kts 81°
2026-05-07 14:08 57.78436 -33.04568 38010 ft 506 kts 81°
2026-05-07 14:09 57.79513 -32.91549 38010 ft 506 kts 81°
2026-05-07 14:09 57.80577 -32.78518 38010 ft 505 kts 81°
2026-05-07 14:10 57.81628 -32.65478 38011 ft 506 kts 81°
2026-05-07 14:10 57.82665 -32.52433 38011 ft 506 kts 81°
2026-05-07 14:11 57.83523 -32.41497 38011 ft 505 kts 82°
2026-05-07 14:11 57.84536 -32.28433 38011 ft 506 kts 82°
2026-05-07 14:12 57.85535 -32.15371 38008 ft 506 kts 82°
2026-05-07 14:12 57.86521 -32.02290 38008 ft 505 kts 82°
2026-05-07 14:13 57.87494 -31.89199 38009 ft 506 kts 82°
2026-05-07 14:13 57.88447 -31.76192 38010 ft 507 kts 82°
2026-05-07 14:14 57.89393 -31.63095 38010 ft 505 kts 82°
2026-05-07 14:14 57.90332 -31.49892 38010 ft 505 kts 82°
2026-05-07 14:15 57.91251 -31.36772 38011 ft 507 kts 82°
2026-05-07 14:15 57.92157 -31.23640 38011 ft 507 kts 83°
2026-05-07 14:16 57.93048 -31.10511 38009 ft 505 kts 83°
2026-05-07 14:16 57.93922 -30.97444 38010 ft 506 kts 83°
2026-05-07 14:17 57.94787 -30.84295 38011 ft 507 kts 83°
2026-05-07 14:17 57.95639 -30.71140 38010 ft 506 kts 83°
2026-05-07 14:18 57.96477 -30.57979 38010 ft 505 kts 83°
2026-05-07 14:18 57.97301 -30.44807 38012 ft 507 kts 83°
2026-05-07 14:19 57.98112 -30.31632 38008 ft 507 kts 83°
2026-05-07 14:19 57.98911 -30.18432 38008 ft 505 kts 83°
2026-05-07 14:20 57.99695 -30.05237 38009 ft 506 kts 83°
2026-05-07 14:20 58.00276 -29.92011 38007 ft 507 kts 85°
2026-05-07 14:21 58.00845 -29.78697 38009 ft 507 kts 86°
2026-05-07 14:21 58.01300 -29.65440 38010 ft 505 kts 86°
2026-05-07 14:22 58.01799 -29.52186 38011 ft 507 kts 86°
2026-05-07 14:22 58.02251 -29.38938 38008 ft 508 kts 86°
2026-05-07 14:23 58.02707 -29.25675 38007 ft 506 kts 86°
2026-05-07 14:23 58.03142 -29.12404 38008 ft 506 kts 86°
2026-05-07 14:24 58.03565 -28.99136 38010 ft 508 kts 86°
2026-05-07 14:24 58.03974 -28.85872 38009 ft 506 kts 86°
2026-05-07 14:25 58.04369 -28.72590 38009 ft 506 kts 86°
2026-05-07 14:25 58.04751 -28.59309 38010 ft 507 kts 87°
2026-05-07 14:26 58.05118 -28.46029 38010 ft 507 kts 87°
2026-05-07 14:26 58.05472 -28.32745 38010 ft 506 kts 87°
2026-05-07 14:27 58.05811 -28.19454 38011 ft 507 kts 87°
2026-05-07 14:27 58.06135 -28.06254 38011 ft 507 kts 87°
2026-05-07 14:28 58.06448 -27.92953 38007 ft 506 kts 87°
2026-05-07 14:28 58.06747 -27.79654 38009 ft 508 kts 88°
2026-05-07 14:29 58.07031 -27.66364 38008 ft 506 kts 88°
2026-05-07 14:29 58.07304 -27.52966 38009 ft 506 kts 88°
2026-05-07 14:30 58.07561 -27.39662 38010 ft 508 kts 88°
2026-05-07 14:30 58.07802 -27.26444 38009 ft 506 kts 88°
2026-05-07 14:31 58.08031 -27.13135 38010 ft 507 kts 88°
2026-05-07 14:31 58.08246 -26.99827 38011 ft 508 kts 88°
2026-05-07 14:32 58.08448 -26.86511 38009 ft 506 kts 88°
2026-05-07 14:32 58.08636 -26.73192 38011 ft 507 kts 88°
2026-05-07 14:33 58.08809 -26.59887 38011 ft 507 kts 89°
2026-05-07 14:33 58.08969 -26.46555 38007 ft 506 kts 89°
2026-05-07 14:34 58.09115 -26.33242 38009 ft 508 kts 89°
2026-05-07 14:34 58.09247 -26.19924 38008 ft 506 kts 89°
2026-05-07 14:35 58.09365 -26.06595 38009 ft 507 kts 89°
2026-05-07 14:35 58.09470 -25.93282 38010 ft 508 kts 89°
2026-05-07 14:36 58.09560 -25.79957 38009 ft 506 kts 89°
2026-05-07 14:36 58.09637 -25.66627 38010 ft 507 kts 89°
2026-05-07 14:37 58.09699 -25.53307 38010 ft 508 kts 89°
2026-05-07 14:37 58.09767 -25.33317 38011 ft 507 kts 90°
2026-05-07 14:38 58.09795 -25.19994 38011 ft 508 kts 90°
2026-05-07 14:38 58.09809 -25.06664 38007 ft 506 kts 90°
2026-05-07 14:39 58.09809 -24.93340 38009 ft 508 kts 90°
2026-05-07 14:39 58.09795 -24.80017 38008 ft 507 kts 90°
2026-05-07 14:40 58.09767 -24.66684 38008 ft 506 kts 90°
2026-05-07 14:40 58.09725 -24.53356 38010 ft 508 kts 90°
2026-05-07 14:41 58.09670 -24.40031 38008 ft 506 kts 90°
2026-05-07 14:41 58.09600 -24.26705 38009 ft 507 kts 90°
2026-05-07 14:42 58.09517 -24.13471 38010 ft 508 kts 91°
2026-05-07 14:42 58.09420 -24.00143 38009 ft 506 kts 91°
2026-05-07 14:43 58.09309 -23.86813 38011 ft 508 kts 91°
2026-05-07 14:43 58.09184 -23.73501 38010 ft 507 kts 91°
2026-05-07 14:44 58.09044 -23.60082 38010 ft 506 kts 91°
2026-05-07 14:44 58.08892 -23.46848 38012 ft 508 kts 91°
2026-05-07 14:45 58.08725 -23.33538 38005 ft 503 kts 91°
2026-05-07 14:45 58.08546 -23.20346 37999 ft 502 kts 91°
2026-05-07 14:46 58.08354 -23.07167 37996 ft 502 kts 91°
2026-05-07 14:46 58.08148 -22.93988 37995 ft 502 kts 92°
2026-05-07 14:47 58.07928 -22.80806 37995 ft 502 kts 92°
2026-05-07 14:47 58.07695 -22.67628 37996 ft 502 kts 92°
2026-05-07 14:48 58.07448 -22.54438 37996 ft 502 kts 92°
2026-05-07 14:48 58.07187 -22.41246 37997 ft 503 kts 92°
2026-05-07 14:49 58.06913 -22.28051 37998 ft 503 kts 92°
2026-05-07 14:49 58.06625 -22.14848 37999 ft 503 kts 92°
2026-05-07 14:50 58.06323 -22.01657 37999 ft 503 kts 92°
2026-05-07 14:50 58.06007 -21.88449 38000 ft 504 kts 92°
2026-05-07 14:51 58.05677 -21.75231 38002 ft 504 kts 92°
2026-05-07 14:51 58.05393 -21.64250 38002 ft 504 kts 93°
2026-05-07 14:52 58.05037 -21.51032 38003 ft 504 kts 93°
2026-05-07 14:52 58.04669 -21.37831 38004 ft 504 kts 93°
2026-05-07 14:53 58.04287 -21.24616 38004 ft 504 kts 93°
2026-05-07 14:53 58.03890 -21.11400 38005 ft 504 kts 93°
2026-05-07 14:54 58.03480 -20.98184 38005 ft 505 kts 93°
2026-05-07 14:54 58.03057 -20.84979 38006 ft 505 kts 94°
2026-05-07 14:55 58.02619 -20.71765 38006 ft 504 kts 94°
2026-05-07 14:55 58.02168 -20.58553 38007 ft 505 kts 94°
2026-05-07 14:56 58.01703 -20.45344 38007 ft 505 kts 94°
2026-05-07 14:56 58.01224 -20.32135 38007 ft 504 kts 94°
2026-05-07 14:57 58.00732 -20.18934 38008 ft 505 kts 94°
2026-05-07 14:57 58.00226 -20.05730 38009 ft 505 kts 94°
2026-05-07 14:58 57.99082 -19.92798 38010 ft 504 kts 108°
2026-05-07 14:58 57.96611 -19.80412 38008 ft 505 kts 112°
2026-05-07 14:59 57.94272 -19.67959 38010 ft 506 kts 106°
2026-05-07 14:59 57.92138 -19.55365 38009 ft 504 kts 110°
2026-05-07 15:00 57.89802 -19.42900 38006 ft 505 kts 108°
2026-05-07 15:00 57.87593 -19.30366 38010 ft 506 kts 109°
2026-05-07 15:01 57.85277 -19.17905 38010 ft 505 kts 109°
2026-05-07 15:01 57.83009 -19.05424 38011 ft 505 kts 109°
2026-05-07 15:02 57.80693 -18.92978 38011 ft 506 kts 109°
2026-05-07 15:02 57.78384 -18.80535 38008 ft 505 kts 109°
2026-05-07 15:03 57.76053 -18.68115 38008 ft 505 kts 109°
2026-05-07 15:03 57.73713 -18.55702 38009 ft 506 kts 109°
2026-05-07 15:04 57.71361 -18.43310 38010 ft 506 kts 110°
2026-05-07 15:04 57.68995 -18.30928 38009 ft 505 kts 110°
2026-05-07 15:05 57.66601 -18.18477 38010 ft 505 kts 110°
2026-05-07 15:05 57.64211 -18.06129 38011 ft 507 kts 110°
2026-05-07 15:06 57.61827 -17.93884 38010 ft 505 kts 110°
2026-05-07 15:06 57.59396 -17.81479 38007 ft 505 kts 110°
2026-05-07 15:07 57.56969 -17.69173 38009 ft 506 kts 110°
2026-05-07 15:07 57.54531 -17.56887 38009 ft 507 kts 110°
2026-05-07 15:08 57.52098 -17.44701 38009 ft 505 kts 110°
2026-05-07 15:08 57.49634 -17.32439 38010 ft 506 kts 110°
2026-05-07 15:09 57.47143 -17.20116 38011 ft 507 kts 110°
2026-05-07 15:09 57.44673 -17.07974 38010 ft 506 kts 111°
2026-05-07 15:10 57.42175 -16.95766 38010 ft 505 kts 111°
2026-05-07 15:10 57.39663 -16.83569 38009 ft 507 kts 111°
2026-05-07 15:11 57.37141 -16.71394 38009 ft 507 kts 111°
2026-05-07 15:11 57.34607 -16.59231 38008 ft 505 kts 111°
2026-05-07 15:12 57.32061 -16.47087 38009 ft 506 kts 111°
2026-05-07 15:12 57.29503 -16.34957 38011 ft 507 kts 111°
2026-05-07 15:13 57.26933 -16.22846 38010 ft 506 kts 111°
2026-05-07 15:13 57.24351 -16.10745 38010 ft 505 kts 111°
2026-05-07 15:14 57.21758 -15.98667 38011 ft 506 kts 111°
2026-05-07 15:14 57.19153 -15.86605 38012 ft 507 kts 112°
2026-05-07 15:15 57.16536 -15.74557 38008 ft 506 kts 112°
2026-05-07 15:15 57.13907 -15.62521 38008 ft 506 kts 112°
2026-05-07 15:16 57.11268 -15.50512 38010 ft 507 kts 112°
2026-05-07 15:16 57.08617 -15.38517 38009 ft 507 kts 112°
2026-05-07 15:17 57.05953 -15.26532 38009 ft 505 kts 112°
2026-05-07 15:17 57.03277 -15.14563 38010 ft 506 kts 112°
2026-05-07 15:18 57.00591 -15.02616 38010 ft 508 kts 111°
2026-05-07 15:18 56.99076 -14.90069 38011 ft 506 kts 94°
2026-05-07 15:19 56.98900 -14.77150 38009 ft 506 kts 90°
2026-05-07 15:19 56.98383 -14.64277 38008 ft 508 kts 97°
2026-05-07 15:20 56.97616 -14.51441 38009 ft 506 kts 94°
2026-05-07 15:20 56.97068 -14.38566 38008 ft 506 kts 96°
2026-05-07 15:21 56.96342 -14.25810 38011 ft 508 kts 95°
2026-05-07 15:21 56.95712 -14.12952 38010 ft 506 kts 95°
2026-05-07 15:22 56.94954 -14.00113 38019 ft 506 kts 101°
2026-05-07 15:22 56.92774 -13.87888 38008 ft 508 kts 114°
2026-05-07 15:23 56.89767 -13.76313 38010 ft 502 kts 114°
2026-05-07 15:23 56.87271 -13.64408 38012 ft 501 kts 110°
2026-05-07 15:24 56.84655 -13.52595 38012 ft 501 kts 113°
2026-05-07 15:24 56.82026 -13.40800 38011 ft 502 kts 111°
2026-05-07 15:25 56.79448 -13.29105 38009 ft 502 kts 112°
2026-05-07 15:25 56.76786 -13.17333 38010 ft 502 kts 112°
2026-05-07 15:26 56.74149 -13.05539 38011 ft 502 kts 112°
2026-05-07 15:26 56.71474 -12.93786 38012 ft 502 kts 112°
2026-05-07 15:27 56.68807 -12.82037 38009 ft 502 kts 112°
2026-05-07 15:27 56.66113 -12.70298 38011 ft 503 kts 112°
2026-05-07 15:28 56.63412 -12.58556 38007 ft 504 kts 112°
2026-05-07 15:28 56.60696 -12.46833 38009 ft 504 kts 113°
2026-05-07 15:29 56.57999 -12.35246 38009 ft 503 kts 113°
2026-05-07 15:29 56.55260 -12.23549 38010 ft 504 kts 113°
2026-05-07 15:30 56.52511 -12.11868 38011 ft 504 kts 113°
2026-05-07 15:30 56.49752 -12.00207 38011 ft 504 kts 113°
2026-05-07 15:31 56.46979 -11.88554 38010 ft 504 kts 113°
2026-05-07 15:31 56.44195 -11.76918 38009 ft 504 kts 113°
2026-05-07 15:32 56.41400 -11.65295 38009 ft 504 kts 114°
2026-05-07 15:32 56.38593 -11.53687 38010 ft 505 kts 114°
2026-05-07 15:33 56.35776 -11.42097 38011 ft 505 kts 114°
2026-05-07 15:33 56.32948 -11.30527 38011 ft 504 kts 114°
2026-05-07 15:34 56.30108 -11.18965 38011 ft 505 kts 114°
2026-05-07 15:34 56.27257 -11.07422 38009 ft 505 kts 114°
2026-05-07 15:35 56.24879 -10.97840 38009 ft 504 kts 114°
2026-05-07 15:35 56.22007 -10.86323 38010 ft 505 kts 114°
2026-05-07 15:36 56.19127 -10.74832 38010 ft 505 kts 114°
2026-05-07 15:36 56.16275 -10.63514 38010 ft 504 kts 114°
2026-05-07 15:37 56.13371 -10.52045 38011 ft 505 kts 114°
2026-05-07 15:37 56.10456 -10.40594 38011 ft 505 kts 115°
2026-05-07 15:38 56.07531 -10.29164 38008 ft 504 kts 115°
2026-05-07 15:38 56.04593 -10.17741 38009 ft 505 kts 115°
2026-05-07 15:39 56.01646 -10.06338 38010 ft 506 kts 115°
2026-05-07 15:39 55.98404 -9.95216 38009 ft 504 kts 122°
2026-05-07 15:40 55.94521 -9.84769 38010 ft 505 kts 123°
2026-05-07 15:40 55.90795 -9.74136 38010 ft 506 kts 122°
2026-05-07 15:41 55.86981 -9.63630 38010 ft 505 kts 123°
2026-05-07 15:41 55.83187 -9.53092 38007 ft 505 kts 122°
2026-05-07 15:42 55.79376 -9.42588 38009 ft 506 kts 123°
2026-05-07 15:42 55.75555 -9.32109 38009 ft 506 kts 123°
2026-05-07 15:43 55.71731 -9.21644 38008 ft 504 kts 123°
2026-05-07 15:43 55.67890 -9.11199 38010 ft 505 kts 123°
2026-05-07 15:44 55.64046 -9.00773 38011 ft 507 kts 123°
2026-05-07 15:44 55.60189 -8.90370 38010 ft 505 kts 123°
2026-05-07 15:45 55.56325 -8.79985 38010 ft 505 kts 123°
2026-05-07 15:45 55.52450 -8.69618 38012 ft 506 kts 123°
2026-05-07 15:46 55.46624 -8.54109 38008 ft 505 kts 123°
2026-05-07 15:47 55.42725 -8.43788 38008 ft 505 kts 124°
2026-05-07 15:47 55.38822 -8.33494 38009 ft 506 kts 124°
2026-05-07 15:48 55.34924 -8.23260 38010 ft 507 kts 124°
2026-05-07 15:48 55.31043 -8.13113 38006 ft 505 kts 124°
2026-05-07 15:49 55.27110 -8.02870 38009 ft 505 kts 124°
2026-05-07 15:49 55.23198 -7.92726 38011 ft 507 kts 124°
2026-05-07 15:50 55.19249 -7.82528 38011 ft 506 kts 124°
2026-05-07 15:50 55.15288 -7.72341 38010 ft 505 kts 124°
2026-05-07 15:51 55.11318 -7.62172 38009 ft 509 kts 124°
2026-05-07 15:51 55.07336 -7.52014 38009 ft 507 kts 124°
2026-05-07 15:52 55.03348 -7.41883 38008 ft 505 kts 124°
2026-05-07 15:52 54.99345 -7.31757 38010 ft 507 kts 124°
2026-05-07 15:53 54.95341 -7.21669 38010 ft 508 kts 124°
2026-05-07 15:53 54.91324 -7.11587 38009 ft 505 kts 125°
2026-05-07 15:54 54.87327 -7.01600 38003 ft 503 kts 125°
2026-05-07 15:54 54.83320 -6.91625 38000 ft 505 kts 125°
2026-05-07 15:55 54.79302 -6.81664 38000 ft 503 kts 125°
2026-05-07 15:55 54.75288 -6.71752 38000 ft 503 kts 125°
2026-05-07 15:56 54.71265 -6.61857 38000 ft 503 kts 125°
2026-05-07 15:56 54.67236 -6.51987 38000 ft 502 kts 125°
2026-05-07 15:57 54.63201 -6.42143 38001 ft 502 kts 125°
2026-05-07 15:57 54.59159 -6.32320 38001 ft 502 kts 126°
2026-05-07 15:58 54.55106 -6.22508 38002 ft 503 kts 126°
2026-05-07 15:58 54.51040 -6.12704 38003 ft 504 kts 126°
2026-05-07 15:59 54.46961 -6.02909 38004 ft 504 kts 126°
2026-05-07 15:59 54.42873 -5.93128 38005 ft 504 kts 126°
2026-05-07 16:00 54.38774 -5.83361 38006 ft 504 kts 126°
2026-05-07 16:00 54.34697 -5.73684 38007 ft 504 kts 126°
2026-05-07 16:01 54.30583 -5.63957 38007 ft 503 kts 126°
2026-05-07 16:01 54.26464 -5.54255 38008 ft 504 kts 126°
2026-05-07 16:02 54.22336 -5.44570 38009 ft 504 kts 126°
2026-05-07 16:02 54.18197 -5.34897 38008 ft 504 kts 126°
2026-05-07 16:03 54.14053 -5.25252 38009 ft 504 kts 126°
2026-05-07 16:03 54.09902 -5.15624 38010 ft 505 kts 126°
2026-05-07 16:04 54.05741 -5.06013 38010 ft 504 kts 126°
2026-05-07 16:04 54.01570 -4.96414 38011 ft 504 kts 127°
2026-05-07 16:05 53.97447 -4.86961 38011 ft 505 kts 127°
2026-05-07 16:05 53.93260 -4.77400 38011 ft 504 kts 127°
2026-05-07 16:06 53.89068 -4.67862 38008 ft 504 kts 127°
2026-05-07 16:06 53.84900 -4.58415 38009 ft 505 kts 127°
2026-05-07 16:07 53.80691 -4.48909 38009 ft 505 kts 127°
2026-05-07 16:07 53.76507 -4.39375 38009 ft 504 kts 127°
2026-05-07 16:08 53.72307 -4.29873 38010 ft 505 kts 127°
2026-05-07 16:08 53.68101 -4.20385 38011 ft 506 kts 127°
2026-05-07 16:09 53.63916 -4.10976 38010 ft 505 kts 127°
2026-05-07 16:09 53.59693 -4.01527 38011 ft 504 kts 127°
2026-05-07 16:10 53.55463 -3.92090 38009 ft 506 kts 127°
2026-05-07 16:10 53.51225 -3.82675 38008 ft 506 kts 127°
2026-05-07 16:11 53.46978 -3.73272 38008 ft 504 kts 127°
2026-05-07 16:11 53.42723 -3.63888 38009 ft 505 kts 127°
2026-05-07 16:12 53.38213 -3.54875 38007 ft 506 kts 131°
2026-05-07 16:12 53.33586 -3.46026 38008 ft 504 kts 131°
2026-05-07 16:13 53.28931 -3.37197 38010 ft 506 kts 131°
2026-05-07 16:13 53.24271 -3.28369 38012 ft 508 kts 131°
2026-05-07 16:14 53.19601 -3.19565 38008 ft 507 kts 131°
2026-05-07 16:14 53.14927 -3.10782 38008 ft 505 kts 131°
2026-05-07 16:15 53.10248 -3.02021 38009 ft 506 kts 131°
2026-05-07 16:15 53.05564 -2.93282 38010 ft 507 kts 132°
2026-05-07 16:16 53.00878 -2.84570 38009 ft 506 kts 132°
2026-05-07 16:16 52.96185 -2.75871 38009 ft 505 kts 132°
2026-05-07 16:17 52.91480 -2.67183 38011 ft 506 kts 132°
2026-05-07 16:17 52.86769 -2.58514 38011 ft 508 kts 132°
2026-05-07 16:18 52.82094 -2.49942 37998 ft 492 kts 132°
2026-05-07 16:18 52.79697 -2.46043 37464 ft 491 kts 141°
2026-05-07 16:18 52.76912 -2.42717 36815 ft 486 kts 148°
2026-05-07 16:18 52.74070 -2.39879 36194 ft 483 kts 150°
2026-05-07 16:19 52.71157 -2.37126 35567 ft 483 kts 149°
2026-05-07 16:19 52.68319 -2.34152 34916 ft 483 kts 145°
2026-05-07 16:19 52.65584 -2.30925 34252 ft 484 kts 144°
2026-05-07 16:19 52.62821 -2.27750 33571 ft 486 kts 147°
2026-05-07 16:20 52.59973 -2.24732 32871 ft 487 kts 148°
2026-05-07 16:20 52.57119 -2.21717 32157 ft 489 kts 147°
2026-05-07 16:20 52.54293 -2.18593 31436 ft 490 kts 146°
2026-05-07 16:20 52.51466 -2.15438 30663 ft 492 kts 146°
2026-05-07 16:21 52.48606 -2.12331 29876 ft 494 kts 147°
2026-05-07 16:21 52.45742 -2.09264 29098 ft 488 kts 147°
2026-05-07 16:21 52.43876 -2.07247 28594 ft 483 kts 147°
2026-05-07 16:21 52.41102 -2.04219 27842 ft 475 kts 146°
2026-05-07 16:22 52.38366 -2.01240 27097 ft 470 kts 147°
2026-05-07 16:22 52.35649 -1.98311 26378 ft 464 kts 147°
2026-05-07 16:22 52.32933 -1.95392 25668 ft 459 kts 147°
2026-05-07 16:22 52.30319 -1.92575 24982 ft 454 kts 147°
2026-05-07 16:23 52.27693 -1.89744 24305 ft 449 kts 147°
2026-05-07 16:23 52.25098 -1.86956 23652 ft 445 kts 147°
2026-05-07 16:23 52.22522 -1.84195 23000 ft 440 kts 147°
2026-05-07 16:23 52.19936 -1.81426 22363 ft 438 kts 147°
2026-05-07 16:24 52.17409 -1.78721 21740 ft 432 kts 147°
2026-05-07 16:24 52.14898 -1.76037 21122 ft 430 kts 147°
2026-05-07 16:24 52.12410 -1.73384 20530 ft 427 kts 147°
2026-05-07 16:24 52.09930 -1.70742 20075 ft 425 kts 147°
2026-05-07 16:25 52.07482 -1.68138 19859 ft 426 kts 147°
2026-05-07 16:25 52.05015 -1.65515 19104 ft 423 kts 147°
2026-05-07 16:25 52.02572 -1.62922 18801 ft 421 kts 147°
2026-05-07 16:25 52.00137 -1.60342 18443 ft 416 kts 147°
2026-05-07 16:26 51.97717 -1.57782 18078 ft 414 kts 147°
2026-05-07 16:26 51.95307 -1.55233 17715 ft 412 kts 147°
2026-05-07 16:26 51.92908 -1.52702 17351 ft 411 kts 147°
2026-05-07 16:26 51.90522 -1.50186 16991 ft 408 kts 147°
2026-05-07 16:27 51.88149 -1.47687 16637 ft 406 kts 147°
2026-05-07 16:27 51.85812 -1.45230 16282 ft 398 kts 147°
2026-05-07 16:27 51.83461 -1.42761 15928 ft 401 kts 147°
2026-05-07 16:27 51.81129 -1.40314 15580 ft 400 kts 147°
2026-05-07 16:28 51.78806 -1.37881 15229 ft 397 kts 147°
2026-05-07 16:28 51.76494 -1.35462 15003 ft 395 kts 147°
2026-05-07 16:28 51.74185 -1.33049 14997 ft 396 kts 147°
2026-05-07 16:28 51.71870 -1.30633 15000 ft 397 kts 147°
2026-05-07 16:29 51.69554 -1.28218 14998 ft 396 kts 147°
2026-05-07 16:29 51.67241 -1.25810 15002 ft 396 kts 147°
2026-05-07 16:29 51.64893 -1.23369 15004 ft 396 kts 147°
2026-05-07 16:29 51.62576 -1.20963 15004 ft 396 kts 147°
2026-05-07 16:30 51.60291 -1.18592 15005 ft 396 kts 147°
2026-05-07 16:30 51.57973 -1.16191 15006 ft 397 kts 147°
2026-05-07 16:30 51.55622 -1.13759 15004 ft 397 kts 147°
2026-05-07 16:30 51.53334 -1.11394 15005 ft 397 kts 147°
2026-05-07 16:31 51.51007 -1.08992 15004 ft 397 kts 147°
2026-05-07 16:31 51.48659 -1.06572 15006 ft 396 kts 147°
2026-05-07 16:31 51.46337 -1.04180 15006 ft 396 kts 147°
2026-05-07 16:31 51.44015 -1.01793 15005 ft 396 kts 147°
2026-05-07 16:32 51.41695 -0.99410 14925 ft 393 kts 147°
2026-05-07 16:32 51.39409 -0.97065 14212 ft 390 kts 147°
2026-05-07 16:32 51.37123 -0.94723 13421 ft 389 kts 147°
2026-05-07 16:32 51.34852 -0.92398 12669 ft 386 kts 147°
2026-05-07 16:33 51.32599 -0.90095 11944 ft 383 kts 148°
2026-05-07 16:33 51.30370 -0.87819 11401 ft 376 kts 148°
2026-05-07 16:33 51.28205 -0.85611 11081 ft 363 kts 148°
2026-05-07 16:33 51.26115 -0.83482 10871 ft 349 kts 148°
2026-05-07 16:34 51.24109 -0.81441 10723 ft 335 kts 148°
2026-05-07 16:34 51.22179 -0.79479 10590 ft 323 kts 148°
2026-05-07 16:34 51.20330 -0.77602 10317 ft 308 kts 148°
2026-05-07 16:34 51.18548 -0.75794 9842 ft 300 kts 148°
2026-05-07 16:35 51.16807 -0.74029 9228 ft 294 kts 148°
2026-05-07 16:35 51.15093 -0.72294 8565 ft 289 kts 148°
2026-05-07 16:35 51.13430 -0.70611 8159 ft 277 kts 148°
2026-05-07 16:35 51.11845 -0.69008 7626 ft 265 kts 148°
2026-05-07 16:36 51.10321 -0.67468 7127 ft 257 kts 148°
2026-05-07 16:36 51.08825 -0.65960 7016 ft 253 kts 148°
2026-05-07 16:36 51.07338 -0.64459 6994 ft 253 kts 148°
2026-05-07 16:36 51.05861 -0.62942 6997 ft 252 kts 143°
2026-05-07 16:37 51.04725 -0.60832 6997 ft 252 kts 127°
2026-05-07 16:37 51.03383 -0.59069 7013 ft 252 kts 155°
2026-05-07 16:37 51.01738 -0.58121 7014 ft 252 kts 163°
2026-05-07 16:37 51.00119 -0.57082 7016 ft 254 kts 144°
2026-05-07 16:38 50.98993 -0.54973 7013 ft 254 kts 114°
2026-05-07 16:38 50.98674 -0.52248 7017 ft 254 kts 84°
2026-05-07 16:38 50.99242 -0.49637 6964 ft 250 kts 57°
2026-05-07 16:38 51.00479 -0.47735 6246 ft 251 kts 27°
2026-05-07 16:39 51.02144 -0.47058 5585 ft 249 kts 358°
2026-05-07 16:39 51.03838 -0.47533 4951 ft 246 kts 344°
2026-05-07 16:39 51.05486 -0.48341 4390 ft 242 kts 341°
2026-05-07 16:39 51.07016 -0.49152 4043 ft 227 kts 341°
2026-05-07 16:40 51.08522 -0.49961 3830 ft 226 kts 341°
2026-05-07 16:40 51.09971 -0.50704 3412 ft 219 kts 346°
2026-05-07 16:40 51.11459 -0.50512 3032 ft 217 kts 20°
2026-05-07 16:40 51.12790 -0.49616 2981 ft 204 kts 22°
2026-05-07 16:41 51.13915 -0.48288 2967 ft 200 kts 53°
2026-05-07 16:41 51.14308 -0.46244 2966 ft 190 kts 90°
2026-05-07 16:41 51.13893 -0.44408 2733 ft 170 kts 127°
2026-05-07 16:41 51.13182 -0.42943 2412 ft 170 kts 121°
2026-05-07 16:42 51.12705 -0.41307 2097 ft 156 kts 114°
2026-05-07 16:42 51.12270 -0.39725 1779 ft 156 kts 112°
2026-05-07 16:42 51.12238 -0.38051 1532 ft 149 kts 72°
2026-05-07 16:42 51.12440 -0.36350 1688 ft 158 kts 78°
2026-05-07 16:43 51.12680 -0.34651 1749 ft 160 kts 78°
2026-05-07 16:43 51.12909 -0.32948 1749 ft 159 kts 77°
2026-05-07 16:43 51.13140 -0.31261 1536 ft 153 kts 77°
2026-05-07 16:43 51.13370 -0.29582 1341 ft 155 kts 77°
2026-05-07 16:44 51.13597 -0.27926 1135 ft 153 kts 77°
2026-05-07 16:44 51.13824 -0.26267 932 ft 152 kts 77°
2026-05-07 16:44 51.14047 -0.24624 737 ft 152 kts 78°
2026-05-07 16:44 51.14268 -0.22985 524 ft 151 kts 77°
2026-05-07 16:45 51.14488 -0.21352 315 ft 149 kts 76°
2026-05-07 16:45 51.14722 -0.19747 237 ft 141 kts 78°
2026-05-07 16:45 51.14910 -0.18389 212 ft 97 kts 82°
2026-05-07 16:45 51.14983 -0.17804 218 ft 20 kts 79°
2026-05-07 16:46 51.15029 -0.17456 218 ft 44 kts 76°
2026-05-07 16:46 51.15159 -0.17214 217 ft 20 kts
2026-05-07 16:46 51.15252 -0.17213 213 ft 0 kts 353°
2026-05-07 16:46 51.15258 -0.17214 213 ft 1 kts 353°
2026-05-07 16:47 51.15273 -0.17218 219 ft 7 kts 345°
2026-05-07 16:47 51.15316 -0.17239 215 ft 10 kts 346°
2026-05-07 16:47 51.15343 -0.17255 219 ft 4 kts 323°
2026-05-07 16:47 51.15403 -0.17273 221 ft 16 kts
2026-05-07 16:48 51.15472 -0.17287 220 ft 8 kts 348°
2026-05-07 16:48 51.15529 -0.17306 215 ft 9 kts 348°
2026-05-07 16:48 51.15567 -0.17325 220 ft 1 kts 313°
2026-05-07 16:48 51.15581 -0.17362 216 ft 8 kts 290°
2026-05-07 16:49 51.15602 -0.17430 220 ft 6 kts 312°
2026-05-07 16:49 51.15646 -0.17470 216 ft 7 kts 346°
2026-05-07 16:49 51.15700 -0.17490 221 ft 9 kts 348°
2026-05-07 16:49 51.15747 -0.17500 222 ft 5 kts
2026-05-07 16:50 51.15798 -0.17497 222 ft 6 kts 356°
2026-05-07 16:50 51.15844 -0.17509 217 ft 8 kts 349°
2026-05-07 16:50 51.15847 -0.17510 217 ft 0 kts 349°